Wetterdaten: Freitag, 03.07.2015
Datum Zeit Temp. I. Temp. A. Feuchte I. Feuchte A. Luftdruck Regen Wind Richtung Richtung Taupunkt Windchill
03.07.2015 00:01 23,5 °C 20,3 °C 58 % 62 % 1022,1 hPa 0,0 l/m² 3,2 km/h (1 Bft) O-NO 67 ° 12,8 °C 20,3 °C
03.07.2015 00:03 23,5 °C 20,2 °C 58 % 62 % 1021,9 hPa 0,0 l/m² 4,0 km/h (1 Bft) O-NO 67 ° 12,7 °C 20,2 °C
03.07.2015 00:05 23,5 °C 20,2 °C 58 % 62 % 1021,9 hPa 0,0 l/m² 4,0 km/h (1 Bft) O 90 ° 12,7 °C 20,2 °C
03.07.2015 00:07 23,5 °C 20,2 °C 58 % 63 % 1022,1 hPa 0,0 l/m² 2,9 km/h (1 Bft) O 90 ° 12,9 °C 20,2 °C
03.07.2015 00:09 23,5 °C 20,2 °C 58 % 63 % 1022,0 hPa 0,0 l/m² 5,8 km/h (2 Bft) O 90 ° 12,9 °C 20,2 °C
03.07.2015 00:11 23,6 °C 20,2 °C 58 % 63 % 1022,1 hPa 0,0 l/m² 3,6 km/h (1 Bft) O-SO 112 ° 12,9 °C 20,2 °C
03.07.2015 00:13 23,6 °C 20,1 °C 58 % 63 % 1021,9 hPa 0,0 l/m² 5,0 km/h (1 Bft) O 90 ° 12,8 °C 20,1 °C
03.07.2015 00:15 23,5 °C 20,1 °C 58 % 64 % 1022,0 hPa 0,0 l/m² 3,6 km/h (1 Bft) O 90 ° 13,1 °C 20,1 °C
03.07.2015 00:17 23,5 °C 20,1 °C 58 % 64 % 1021,9 hPa 0,0 l/m² 5,0 km/h (1 Bft) O 90 ° 13,1 °C 20,1 °C
03.07.2015 00:19 23,5 °C 20,1 °C 58 % 64 % 1022,0 hPa 0,0 l/m² 5,0 km/h (1 Bft) O 90 ° 13,1 °C 20,1 °C
03.07.2015 00:21 23,5 °C 20,0 °C 58 % 64 % 1022,0 hPa 0,0 l/m² 4,7 km/h (1 Bft) O 90 ° 13,0 °C 20,0 °C
03.07.2015 00:23 23,5 °C 19,9 °C 58 % 64 % 1022,0 hPa 0,0 l/m² 5,0 km/h (1 Bft) O-SO 112 ° 12,9 °C 19,9 °C
03.07.2015 00:25 23,5 °C 19,9 °C 58 % 64 % 1021,8 hPa 0,0 l/m² 7,6 km/h (2 Bft) O 90 ° 12,9 °C 19,4 °C
03.07.2015 00:27 23,5 °C 19,9 °C 58 % 64 % 1021,6 hPa 0,0 l/m² 8,6 km/h (2 Bft) O 90 ° 12,9 °C 19,0 °C
03.07.2015 00:29 23,5 °C 19,9 °C 58 % 64 % 1021,6 hPa 0,0 l/m² 6,8 km/h (2 Bft) O-SO 112 ° 12,9 °C 19,7 °C
03.07.2015 00:31 23,5 °C 20,0 °C 58 % 64 % 1021,7 hPa 0,0 l/m² 8,6 km/h (2 Bft) O-SO 112 ° 13,0 °C 19,1 °C
03.07.2015 00:33 23,5 °C 20,0 °C 58 % 64 % 1021,7 hPa 0,0 l/m² 5,8 km/h (2 Bft) O-SO 112 ° 13,0 °C 20,0 °C
03.07.2015 00:35 23,5 °C 20,1 °C 58 % 64 % 1021,6 hPa 0,0 l/m² 5,4 km/h (2 Bft) O 90 ° 13,1 °C 20,1 °C
03.07.2015 00:37 23,5 °C 20,1 °C 58 % 64 % 1021,7 hPa 0,0 l/m² 8,6 km/h (2 Bft) O 90 ° 13,1 °C 19,2 °C
03.07.2015 00:39 23,5 °C 20,1 °C 58 % 64 % 1021,7 hPa 0,0 l/m² 6,1 km/h (2 Bft) O-NO 67 ° 13,1 °C 20,1 °C
03.07.2015 00:41 23,5 °C 20,1 °C 58 % 64 % 1021,6 hPa 0,0 l/m² 7,9 km/h (2 Bft) O-SO 112 ° 13,1 °C 19,5 °C
03.07.2015 00:43 23,5 °C 20,0 °C 58 % 64 % 1021,7 hPa 0,0 l/m² 9,0 km/h (2 Bft) NO 45 ° 13,0 °C 19,0 °C
03.07.2015 00:45 23,5 °C 20,0 °C 58 % 64 % 1021,7 hPa 0,0 l/m² 7,6 km/h (2 Bft) O-NO 67 ° 13,0 °C 19,5 °C
03.07.2015 00:47 23,5 °C 19,9 °C 58 % 64 % 1021,7 hPa 0,0 l/m² 2,9 km/h (1 Bft) O 90 ° 12,9 °C 19,9 °C
03.07.2015 00:49 23,5 °C 19,9 °C 58 % 64 % 1021,7 hPa 0,0 l/m² 2,9 km/h (1 Bft) O 90 ° 12,9 °C 19,9 °C
03.07.2015 00:51 23,5 °C 20,0 °C 58 % 65 % 1021,8 hPa 0,0 l/m² 3,6 km/h (1 Bft) O-SO 112 ° 13,2 °C 20,0 °C
03.07.2015 00:53 23,5 °C 19,9 °C 58 % 65 % 1021,7 hPa 0,0 l/m² 4,0 km/h (1 Bft) O-NO 67 ° 13,1 °C 19,9 °C
03.07.2015 00:55 23,5 °C 19,9 °C 58 % 65 % 1021,7 hPa 0,0 l/m² 7,2 km/h (2 Bft) O-SO 112 ° 13,1 °C 19,6 °C
03.07.2015 00:57 23,5 °C 19,9 °C 58 % 65 % 1021,8 hPa 0,0 l/m² 6,1 km/h (2 Bft) O-SO 112 ° 13,1 °C 19,9 °C
03.07.2015 00:59 23,5 °C 19,9 °C 58 % 65 % 1021,9 hPa 0,0 l/m² 5,0 km/h (1 Bft) O-SO 112 ° 13,1 °C 19,9 °C
03.07.2015 01:01 23,5 °C 19,9 °C 58 % 65 % 1021,8 hPa 0,0 l/m² 6,1 km/h (2 Bft) O 90 ° 13,1 °C 19,9 °C
03.07.2015 01:03 23,5 °C 19,9 °C 58 % 65 % 1021,8 hPa 0,0 l/m² 3,6 km/h (1 Bft) O-NO 67 ° 13,1 °C 19,9 °C
03.07.2015 01:05 23,5 °C 19,9 °C 58 % 65 % 1021,9 hPa 0,0 l/m² 5,4 km/h (2 Bft) O 90 ° 13,1 °C 19,9 °C
03.07.2015 01:07 23,5 °C 19,9 °C 58 % 65 % 1021,9 hPa 0,0 l/m² 4,3 km/h (1 Bft) O-NO 67 ° 13,1 °C 19,9 °C
03.07.2015 01:09 23,5 °C 19,8 °C 58 % 65 % 1021,8 hPa 0,0 l/m² 4,7 km/h (1 Bft) O-SO 112 ° 13,0 °C 19,8 °C
03.07.2015 01:11 23,5 °C 19,8 °C 58 % 65 % 1021,8 hPa 0,0 l/m² 4,7 km/h (1 Bft) O-SO 112 ° 13,0 °C 19,8 °C
03.07.2015 01:13 23,5 °C 19,8 °C 58 % 65 % 1021,9 hPa 0,0 l/m² 5,0 km/h (1 Bft) O 90 ° 13,0 °C 19,8 °C
03.07.2015 01:15 23,5 °C 19,8 °C 58 % 65 % 1021,8 hPa 0,0 l/m² 3,2 km/h (1 Bft) O 90 ° 13,0 °C 19,8 °C
03.07.2015 01:17 23,5 °C 19,7 °C 58 % 65 % 1021,9 hPa 0,0 l/m² 4,7 km/h (1 Bft) O-SO 112 ° 12,9 °C 19,7 °C
03.07.2015 01:19 23,5 °C 19,7 °C 58 % 65 % 1021,9 hPa 0,0 l/m² 4,7 km/h (1 Bft) O-SO 112 ° 12,9 °C 19,7 °C
03.07.2015 01:21 23,5 °C 19,6 °C 58 % 65 % 1021,8 hPa 0,0 l/m² 4,7 km/h (1 Bft) O 90 ° 12,8 °C 19,6 °C
03.07.2015 01:23 23,5 °C 19,6 °C 58 % 66 % 1021,8 hPa 0,0 l/m² 3,6 km/h (1 Bft) O-NO 67 ° 13,1 °C 19,6 °C
03.07.2015 01:25 23,5 °C 19,6 °C 58 % 65 % 1021,8 hPa 0,0 l/m² 0,0 km/h (0 Bft) O-SO 112 ° 12,8 °C 19,6 °C
03.07.2015 01:27 23,5 °C 19,5 °C 58 % 65 % 1021,9 hPa 0,0 l/m² 4,7 km/h (1 Bft) O 90 ° 12,7 °C 19,5 °C
03.07.2015 01:29 23,5 °C 19,6 °C 58 % 65 % 1021,9 hPa 0,0 l/m² 3,6 km/h (1 Bft) O 90 ° 12,8 °C 19,6 °C
03.07.2015 01:31 23,5 °C 19,5 °C 58 % 66 % 1021,8 hPa 0,0 l/m² 4,7 km/h (1 Bft) O-SO 112 ° 13,0 °C 19,5 °C
03.07.2015 01:33 23,5 °C 19,5 °C 58 % 66 % 1021,9 hPa 0,0 l/m² 2,2 km/h (1 Bft) SO 135 ° 13,0 °C 19,5 °C
03.07.2015 01:35 23,5 °C 19,4 °C 58 % 66 % 1021,8 hPa 0,0 l/m² 0,0 km/h (0 Bft) SO 135 ° 12,9 °C 19,4 °C
03.07.2015 01:37 23,5 °C 19,3 °C 58 % 66 % 1021,9 hPa 0,0 l/m² 2,2 km/h (1 Bft) SO 135 ° 12,8 °C 19,3 °C
03.07.2015 01:39 23,5 °C 19,3 °C 58 % 66 % 1021,8 hPa 0,0 l/m² 0,0 km/h (0 Bft) SO 135 ° 12,8 °C 19,3 °C
03.07.2015 01:41 23,5 °C 19,2 °C 58 % 66 % 1021,8 hPa 0,0 l/m² 2,5 km/h (1 Bft) O-SO 112 ° 12,7 °C 19,2 °C
03.07.2015 01:43 23,5 °C 19,1 °C 58 % 66 % 1021,9 hPa 0,0 l/m² 2,5 km/h (1 Bft) O-NO 67 ° 12,6 °C 19,1 °C
03.07.2015 01:45 23,5 °C 19,1 °C 58 % 66 % 1021,8 hPa 0,0 l/m² 2,5 km/h (1 Bft) O-NO 67 ° 12,6 °C 19,1 °C
03.07.2015 01:47 23,5 °C 19,0 °C 58 % 66 % 1021,9 hPa 0,0 l/m² 0,0 km/h (0 Bft) O-SO 112 ° 12,5 °C 19,0 °C
03.07.2015 01:49 23,5 °C 19,0 °C 58 % 66 % 1021,9 hPa 0,0 l/m² 0,0 km/h (0 Bft) O-SO 112 ° 12,5 °C 19,0 °C
03.07.2015 01:51 23,5 °C 18,9 °C 58 % 67 % 1022,0 hPa 0,0 l/m² 7,6 km/h (2 Bft) O 90 ° 12,6 °C 18,4 °C
03.07.2015 01:53 23,5 °C 18,9 °C 58 % 67 % 1021,9 hPa 0,0 l/m² 4,7 km/h (1 Bft) O-SO 112 ° 12,6 °C 18,9 °C
03.07.2015 01:55 23,5 °C 18,9 °C 58 % 67 % 1021,9 hPa 0,0 l/m² 2,5 km/h (1 Bft) O-SO 112 ° 12,6 °C 18,9 °C
03.07.2015 01:57 23,5 °C 18,9 °C 58 % 67 % 1021,9 hPa 0,0 l/m² 3,2 km/h (1 Bft) O 90 ° 12,6 °C 18,9 °C
03.07.2015 01:59 23,5 °C 18,8 °C 58 % 67 % 1021,9 hPa 0,0 l/m² 2,2 km/h (1 Bft) O-SO 112 ° 12,5 °C 18,8 °C
03.07.2015 02:01 23,5 °C 18,8 °C 58 % 67 % 1021,9 hPa 0,0 l/m² 2,5 km/h (1 Bft) O-SO 112 ° 12,5 °C 18,8 °C
03.07.2015 02:03 23,5 °C 18,7 °C 58 % 68 % 1021,9 hPa 0,0 l/m² 1,4 km/h (1 Bft) O-NO 67 ° 12,7 °C 18,7 °C
03.07.2015 02:05 23,5 °C 18,6 °C 58 % 69 % 1021,8 hPa 0,0 l/m² 4,0 km/h (1 Bft) O-SO 112 ° 12,8 °C 18,6 °C
03.07.2015 02:07 23,5 °C 18,6 °C 58 % 69 % 1021,9 hPa 0,0 l/m² 5,4 km/h (2 Bft) O 90 ° 12,8 °C 18,6 °C
03.07.2015 02:09 23,5 °C 18,6 °C 58 % 69 % 1021,9 hPa 0,0 l/m² 4,0 km/h (1 Bft) O-SO 112 ° 12,8 °C 18,6 °C
03.07.2015 02:11 23,5 °C 18,5 °C 58 % 69 % 1021,9 hPa 0,0 l/m² 3,2 km/h (1 Bft) O-SO 112 ° 12,7 °C 18,5 °C
03.07.2015 02:13 23,5 °C 18,5 °C 58 % 69 % 1021,9 hPa 0,0 l/m² 0,0 km/h (0 Bft) O-SO 112 ° 12,7 °C 18,5 °C
03.07.2015 02:15 23,5 °C 18,4 °C 58 % 69 % 1022,0 hPa 0,0 l/m² 0,0 km/h (0 Bft) S-SO 157 ° 12,6 °C 18,4 °C
03.07.2015 02:17 23,5 °C 18,4 °C 58 % 69 % 1022,0 hPa 0,0 l/m² 0,0 km/h (0 Bft) O-SO 112 ° 12,6 °C 18,4 °C
03.07.2015 02:19 23,5 °C 18,4 °C 58 % 69 % 1022,0 hPa 0,0 l/m² 0,0 km/h (0 Bft) O-SO 112 ° 12,6 °C 18,4 °C
03.07.2015 02:21 23,5 °C 18,3 °C 58 % 69 % 1021,8 hPa 0,0 l/m² 0,0 km/h (0 Bft) NO 45 ° 12,5 °C 18,3 °C
03.07.2015 02:23 23,5 °C 18,3 °C 58 % 69 % 1021,9 hPa 0,0 l/m² 2,9 km/h (1 Bft) O-SO 112 ° 12,5 °C 18,3 °C
03.07.2015 02:25 23,5 °C 18,2 °C 58 % 69 % 1021,9 hPa 0,0 l/m² 1,8 km/h (1 Bft) O-NO 67 ° 12,4 °C 18,2 °C
03.07.2015 02:27 23,5 °C 18,2 °C 58 % 69 % 1021,8 hPa 0,0 l/m² 1,8 km/h (1 Bft) O-SO 112 ° 12,4 °C 18,2 °C
03.07.2015 02:29 23,5 °C 18,1 °C 58 % 69 % 1021,8 hPa 0,0 l/m² 3,2 km/h (1 Bft) O-SO 112 ° 12,3 °C 18,1 °C
03.07.2015 02:31 23,5 °C 18,1 °C 58 % 70 % 1021,9 hPa 0,0 l/m² 3,6 km/h (1 Bft) O-SO 112 ° 12,5 °C 18,1 °C
03.07.2015 02:33 23,5 °C 18,1 °C 58 % 70 % 1021,8 hPa 0,0 l/m² 3,6 km/h (1 Bft) O-SO 112 ° 12,5 °C 18,1 °C
03.07.2015 02:35 23,5 °C 17,9 °C 58 % 70 % 1021,8 hPa 0,0 l/m² 4,3 km/h (1 Bft) SO 135 ° 12,3 °C 17,9 °C
03.07.2015 02:37 23,5 °C 17,9 °C 58 % 71 % 1021,8 hPa 0,0 l/m² 0,0 km/h (0 Bft) SO 135 ° 12,6 °C 17,9 °C
03.07.2015 02:39 23,5 °C 17,9 °C 58 % 71 % 1021,8 hPa 0,0 l/m² 0,0 km/h (0 Bft) O 90 ° 12,6 °C 17,9 °C
03.07.2015 02:41 23,5 °C 17,8 °C 58 % 72 % 1021,7 hPa 0,0 l/m² 0,0 km/h (0 Bft) SO 135 ° 12,7 °C 17,8 °C
03.07.2015 02:43 23,5 °C 17,8 °C 58 % 72 % 1021,8 hPa 0,0 l/m² 1,4 km/h (1 Bft) SO 135 ° 12,7 °C 17,8 °C
03.07.2015 02:45 23,5 °C 17,7 °C 58 % 72 % 1021,8 hPa 0,0 l/m² 0,0 km/h (0 Bft) S-SO 157 ° 12,6 °C 17,7 °C
03.07.2015 02:47 23,5 °C 17,6 °C 58 % 72 % 1021,8 hPa 0,0 l/m² 0,0 km/h (0 Bft) O-NO 67 ° 12,5 °C 17,6 °C
03.07.2015 02:49 23,5 °C 17,6 °C 58 % 72 % 1021,8 hPa 0,0 l/m² 0,0 km/h (0 Bft) O 90 ° 12,5 °C 17,6 °C
03.07.2015 02:51 23,5 °C 17,6 °C 58 % 72 % 1021,8 hPa 0,0 l/m² 0,0 km/h (0 Bft) O 90 ° 12,5 °C 17,6 °C
03.07.2015 02:53 23,5 °C 17,5 °C 58 % 72 % 1021,8 hPa 0,0 l/m² 0,0 km/h (0 Bft) SO 135 ° 12,4 °C 17,5 °C
03.07.2015 02:55 23,5 °C 17,5 °C 58 % 73 % 1021,7 hPa 0,0 l/m² 0,0 km/h (0 Bft) SO 135 ° 12,6 °C 17,5 °C
03.07.2015 02:57 23,5 °C 17,5 °C 58 % 72 % 1021,7 hPa 0,0 l/m² 0,0 km/h (0 Bft) SO 135 ° 12,4 °C 17,5 °C
03.07.2015 02:59 23,5 °C 17,4 °C 58 % 72 % 1021,9 hPa 0,0 l/m² 0,0 km/h (0 Bft) SO 135 ° 12,3 °C 17,4 °C
03.07.2015 03:01 23,5 °C 17,4 °C 58 % 73 % 1021,9 hPa 0,0 l/m² 0,0 km/h (0 Bft) SO 135 ° 12,5 °C 17,4 °C
03.07.2015 03:03 23,5 °C 17,4 °C 58 % 73 % 1021,9 hPa 0,0 l/m² 0,0 km/h (0 Bft) SO 135 ° 12,5 °C 17,4 °C
03.07.2015 03:05 23,5 °C 17,4 °C 58 % 74 % 1021,8 hPa 0,0 l/m² 0,0 km/h (0 Bft) W-SW 247 ° 12,7 °C 17,4 °C
03.07.2015 03:07 23,5 °C 17,4 °C 58 % 74 % 1021,8 hPa 0,0 l/m² 0,0 km/h (0 Bft) O-SO 112 ° 12,7 °C 17,4 °C
03.07.2015 03:09 23,5 °C 17,3 °C 58 % 74 % 1021,7 hPa 0,0 l/m² 2,5 km/h (1 Bft) O-SO 112 ° 12,6 °C 17,3 °C
03.07.2015 03:11 23,5 °C 17,3 °C 58 % 73 % 1021,8 hPa 0,0 l/m² 0,0 km/h (0 Bft) O-SO 112 ° 12,4 °C 17,3 °C
03.07.2015 03:13 23,5 °C 17,2 °C 58 % 73 % 1021,7 hPa 0,0 l/m² 0,0 km/h (0 Bft) SO 135 ° 12,3 °C 17,2 °C
03.07.2015 03:15 23,5 °C 17,2 °C 58 % 73 % 1021,8 hPa 0,0 l/m² 0,0 km/h (0 Bft) O-SO 112 ° 12,3 °C 17,2 °C
03.07.2015 03:17 23,5 °C 17,1 °C 58 % 73 % 1021,8 hPa 0,0 l/m² 2,2 km/h (1 Bft) O-SO 112 ° 12,2 °C 17,1 °C
03.07.2015 03:19 23,5 °C 17,1 °C 58 % 73 % 1021,8 hPa 0,0 l/m² 2,5 km/h (1 Bft) O-NO 67 ° 12,2 °C 17,1 °C
03.07.2015 03:21 23,5 °C 17,1 °C 58 % 73 % 1021,8 hPa 0,0 l/m² 2,5 km/h (1 Bft) O-NO 67 ° 12,2 °C 17,1 °C
03.07.2015 03:23 23,5 °C 17,1 °C 58 % 73 % 1021,9 hPa 0,0 l/m² 3,2 km/h (1 Bft) O-NO 67 ° 12,2 °C 17,1 °C
03.07.2015 03:25 23,5 °C 17,1 °C 58 % 73 % 1021,8 hPa 0,0 l/m² 1,8 km/h (1 Bft) O 90 ° 12,2 °C 17,1 °C
03.07.2015 03:27 23,5 °C 17,1 °C 58 % 73 % 1021,9 hPa 0,0 l/m² 2,2 km/h (1 Bft) O 90 ° 12,2 °C 17,1 °C
03.07.2015 03:29 23,5 °C 17,1 °C 58 % 73 % 1021,8 hPa 0,0 l/m² 0,0 km/h (0 Bft) O 90 ° 12,2 °C 17,1 °C
03.07.2015 03:31 23,5 °C 17,1 °C 58 % 73 % 1021,9 hPa 0,0 l/m² 2,9 km/h (1 Bft) O-SO 112 ° 12,2 °C 17,1 °C
03.07.2015 03:33 23,5 °C 17,1 °C 58 % 73 % 1021,8 hPa 0,0 l/m² 3,2 km/h (1 Bft) O-NO 67 ° 12,2 °C 17,1 °C
03.07.2015 03:35 23,5 °C 17,1 °C 58 % 73 % 1021,9 hPa 0,0 l/m² 2,5 km/h (1 Bft) O-SO 112 ° 12,2 °C 17,1 °C
03.07.2015 03:37 23,5 °C 17,1 °C 58 % 74 % 1021,9 hPa 0,0 l/m² 3,2 km/h (1 Bft) O-SO 112 ° 12,4 °C 17,1 °C
03.07.2015 03:39 23,5 °C 17,1 °C 58 % 74 % 1021,9 hPa 0,0 l/m² 0,0 km/h (0 Bft) O-SO 112 ° 12,4 °C 17,1 °C
03.07.2015 03:41 23,5 °C 17,0 °C 58 % 74 % 1021,8 hPa 0,0 l/m² 2,5 km/h (1 Bft) S-SO 157 ° 12,3 °C 17,0 °C
03.07.2015 03:43 23,5 °C 17,0 °C 58 % 74 % 1021,8 hPa 0,0 l/m² 2,2 km/h (1 Bft) O 90 ° 12,3 °C 17,0 °C
03.07.2015 03:45 23,5 °C 17,0 °C 58 % 74 % 1021,7 hPa 0,0 l/m² 0,0 km/h (0 Bft) O-SO 112 ° 12,3 °C 17,0 °C
03.07.2015 03:47 23,5 °C 16,9 °C 58 % 74 % 1021,8 hPa 0,0 l/m² 5,8 km/h (2 Bft) O-SO 112 ° 12,2 °C 16,9 °C
03.07.2015 03:49 23,5 °C 16,9 °C 58 % 74 % 1021,8 hPa 0,0 l/m² 2,2 km/h (1 Bft) O-SO 112 ° 12,2 °C 16,9 °C
03.07.2015 03:51 23,5 °C 16,9 °C 58 % 74 % 1021,8 hPa 0,0 l/m² 2,2 km/h (1 Bft) O-SO 112 ° 12,2 °C 16,9 °C
03.07.2015 03:53 23,5 °C 16,9 °C 58 % 74 % 1021,7 hPa 0,0 l/m² 3,2 km/h (1 Bft) O 90 ° 12,2 °C 16,9 °C
03.07.2015 03:55 23,5 °C 16,9 °C 58 % 74 % 1021,8 hPa 0,0 l/m² 3,6 km/h (1 Bft) O-NO 67 ° 12,2 °C 16,9 °C
03.07.2015 03:57 23,5 °C 16,9 °C 58 % 75 % 1021,9 hPa 0,0 l/m² 5,0 km/h (1 Bft) O 90 ° 12,4 °C 16,9 °C
03.07.2015 03:59 23,5 °C 16,9 °C 58 % 75 % 1021,7 hPa 0,0 l/m² 0,0 km/h (0 Bft) O-NO 67 ° 12,4 °C 16,9 °C
03.07.2015 04:01 23,5 °C 16,9 °C 58 % 75 % 1021,8 hPa 0,0 l/m² 3,2 km/h (1 Bft) O-SO 112 ° 12,4 °C 16,9 °C
03.07.2015 04:03 23,5 °C 16,9 °C 58 % 75 % 1021,7 hPa 0,0 l/m² 3,6 km/h (1 Bft) O-SO 112 ° 12,4 °C 16,9 °C
03.07.2015 04:05 23,5 °C 16,9 °C 58 % 75 % 1021,8 hPa 0,0 l/m² 2,5 km/h (1 Bft) O-SO 112 ° 12,4 °C 16,9 °C
03.07.2015 04:07 23,5 °C 16,9 °C 58 % 75 % 1021,8 hPa 0,0 l/m² 0,0 km/h (0 Bft) O 90 ° 12,4 °C 16,9 °C
03.07.2015 04:09 23,5 °C 16,9 °C 58 % 75 % 1021,8 hPa 0,0 l/m² 2,5 km/h (1 Bft) O 90 ° 12,4 °C 16,9 °C
03.07.2015 04:11 23,5 °C 16,9 °C 58 % 75 % 1021,8 hPa 0,0 l/m² 0,0 km/h (0 Bft) O 90 ° 12,4 °C 16,9 °C
03.07.2015 04:13 23,5 °C 16,9 °C 58 % 75 % 1021,9 hPa 0,0 l/m² 0,0 km/h (0 Bft) SO 135 ° 12,4 °C 16,9 °C
03.07.2015 04:15 23,5 °C 16,9 °C 58 % 75 % 1021,9 hPa 0,0 l/m² 0,0 km/h (0 Bft) NO 45 ° 12,4 °C 16,9 °C
03.07.2015 04:17 23,5 °C 16,9 °C 58 % 75 % 1021,9 hPa 0,0 l/m² 0,0 km/h (0 Bft) O-NO 67 ° 12,4 °C 16,9 °C
03.07.2015 04:19 23,5 °C 16,9 °C 58 % 75 % 1022,0 hPa 0,0 l/m² 0,0 km/h (0 Bft) S-SO 157 ° 12,4 °C 16,9 °C
03.07.2015 04:21 23,5 °C 16,9 °C 58 % 75 % 1022,0 hPa 0,0 l/m² 0,0 km/h (0 Bft) S-SO 157 ° 12,4 °C 16,9 °C
03.07.2015 04:23 23,5 °C 16,9 °C 58 % 75 % 1022,0 hPa 0,0 l/m² 0,0 km/h (0 Bft) S-SO 157 ° 12,4 °C 16,9 °C
03.07.2015 04:25 23,5 °C 16,9 °C 58 % 75 % 1021,9 hPa 0,0 l/m² 0,0 km/h (0 Bft) S-SO 157 ° 12,4 °C 16,9 °C
03.07.2015 04:27 23,5 °C 16,8 °C 58 % 75 % 1021,9 hPa 0,0 l/m² 1,8 km/h (1 Bft) S 180 ° 12,3 °C 16,8 °C
03.07.2015 04:29 23,5 °C 16,8 °C 58 % 75 % 1021,9 hPa 0,0 l/m² 2,2 km/h (1 Bft) S-SO 157 ° 12,3 °C 16,8 °C
03.07.2015 04:31 23,5 °C 16,6 °C 58 % 75 % 1021,9 hPa 0,0 l/m² 0,0 km/h (0 Bft) S-SO 157 ° 12,1 °C 16,6 °C
03.07.2015 04:33 23,5 °C 16,6 °C 58 % 76 % 1022,0 hPa 0,0 l/m² 2,5 km/h (1 Bft) SW 225 ° 12,3 °C 16,6 °C
03.07.2015 04:35 23,5 °C 16,5 °C 58 % 76 % 1021,9 hPa 0,0 l/m² 2,5 km/h (1 Bft) O-SO 112 ° 12,3 °C 16,5 °C
03.07.2015 04:37 23,5 °C 16,5 °C 58 % 77 % 1021,9 hPa 0,0 l/m² 2,5 km/h (1 Bft) O 90 ° 12,5 °C 16,5 °C
03.07.2015 04:39 23,5 °C 16,4 °C 58 % 77 % 1022,0 hPa 0,0 l/m² 0,0 km/h (0 Bft) W 270 ° 12,4 °C 16,4 °C
03.07.2015 04:41 23,5 °C 16,4 °C 58 % 77 % 1022,0 hPa 0,0 l/m² 0,0 km/h (0 Bft) N-NW 337 ° 12,4 °C 16,4 °C
03.07.2015 04:43 23,5 °C 16,4 °C 58 % 77 % 1022,0 hPa 0,0 l/m² 0,0 km/h (0 Bft) NO 45 ° 12,4 °C 16,4 °C
03.07.2015 04:45 23,5 °C 16,4 °C 58 % 77 % 1022,1 hPa 0,0 l/m² 2,5 km/h (1 Bft) W-SW 247 ° 12,4 °C 16,4 °C
03.07.2015 04:47 23,5 °C 16,3 °C 58 % 78 % 1022,0 hPa 0,0 l/m² 6,1 km/h (2 Bft) O 90 ° 12,5 °C 16,3 °C
03.07.2015 04:49 23,5 °C 16,3 °C 58 % 78 % 1022,0 hPa 0,0 l/m² 0,0 km/h (0 Bft) O 90 ° 12,5 °C 16,3 °C
03.07.2015 04:51 23,5 °C 16,3 °C 58 % 78 % 1022,0 hPa 0,0 l/m² 0,0 km/h (0 Bft) O 90 ° 12,5 °C 16,3 °C
03.07.2015 04:53 23,5 °C 16,3 °C 58 % 78 % 1022,0 hPa 0,0 l/m² 0,0 km/h (0 Bft) W-NW 292 ° 12,5 °C 16,3 °C
03.07.2015 04:55 23,5 °C 16,2 °C 58 % 78 % 1022,0 hPa 0,0 l/m² 0,0 km/h (0 Bft) O-NO 67 ° 12,4 °C 16,2 °C
03.07.2015 04:57 23,5 °C 16,2 °C 58 % 78 % 1022,1 hPa 0,0 l/m² 0,0 km/h (0 Bft) O-NO 67 ° 12,4 °C 16,2 °C
03.07.2015 04:59 23,5 °C 16,1 °C 58 % 79 % 1022,0 hPa 0,0 l/m² 1,4 km/h (1 Bft) W-SW 247 ° 12,5 °C 16,1 °C
03.07.2015 05:01 23,5 °C 16,1 °C 58 % 79 % 1022,0 hPa 0,0 l/m² 0,0 km/h (0 Bft) SO 135 ° 12,5 °C 16,1 °C
03.07.2015 05:03 23,5 °C 16,1 °C 58 % 79 % 1022,0 hPa 0,0 l/m² 4,7 km/h (1 Bft) O 90 ° 12,5 °C 16,1 °C
03.07.2015 05:05 23,5 °C 15,9 °C 58 % 79 % 1022,1 hPa 0,0 l/m² 1,4 km/h (1 Bft) S 180 ° 12,3 °C 15,9 °C
03.07.2015 05:07 23,5 °C 15,9 °C 58 % 79 % 1021,9 hPa 0,0 l/m² 5,8 km/h (2 Bft) O-NO 67 ° 12,3 °C 15,9 °C
03.07.2015 05:09 23,5 °C 15,9 °C 58 % 79 % 1022,1 hPa 0,0 l/m² 2,5 km/h (1 Bft) SW 225 ° 12,3 °C 15,9 °C
03.07.2015 05:11 23,5 °C 15,9 °C 58 % 79 % 1022,0 hPa 0,0 l/m² 2,2 km/h (1 Bft) O-NO 67 ° 12,3 °C 15,9 °C
03.07.2015 05:13 23,5 °C 15,8 °C 58 % 80 % 1022,0 hPa 0,0 l/m² 0,0 km/h (0 Bft) NO 45 ° 12,4 °C 15,8 °C
03.07.2015 05:15 23,5 °C 15,8 °C 58 % 80 % 1022,1 hPa 0,0 l/m² 2,5 km/h (1 Bft) O 90 ° 12,4 °C 15,8 °C
03.07.2015 05:17 23,5 °C 15,8 °C 58 % 80 % 1022,0 hPa 0,0 l/m² 6,1 km/h (2 Bft) O-NO 67 ° 12,4 °C 15,8 °C
03.07.2015 05:19 23,5 °C 15,8 °C 58 % 80 % 1022,0 hPa 0,0 l/m² 0,0 km/h (0 Bft) S 180 ° 12,4 °C 15,8 °C
03.07.2015 05:21 23,5 °C 15,8 °C 58 % 80 % 1022,0 hPa 0,0 l/m² 0,0 km/h (0 Bft) S 180 ° 12,4 °C 15,8 °C
03.07.2015 05:23 23,5 °C 15,7 °C 58 % 80 % 1022,0 hPa 0,0 l/m² 0,0 km/h (0 Bft) O-SO 112 ° 12,3 °C 15,7 °C
03.07.2015 05:25 23,4 °C 15,7 °C 58 % 80 % 1022,0 hPa 0,0 l/m² 4,3 km/h (1 Bft) O 90 ° 12,3 °C 15,7 °C
03.07.2015 05:27 23,5 °C 15,7 °C 58 % 80 % 1022,1 hPa 0,0 l/m² 0,0 km/h (0 Bft) O-NO 67 ° 12,3 °C 15,7 °C
03.07.2015 05:29 23,5 °C 15,7 °C 58 % 80 % 1022,1 hPa 0,0 l/m² 0,0 km/h (0 Bft) O-SO 112 ° 12,3 °C 15,7 °C
03.07.2015 05:31 23,5 °C 15,8 °C 58 % 80 % 1022,1 hPa 0,0 l/m² 0,0 km/h (0 Bft) O 90 ° 12,4 °C 15,8 °C
03.07.2015 05:33 23,5 °C 15,8 °C 58 % 80 % 1022,2 hPa 0,0 l/m² 0,0 km/h (0 Bft) O 90 ° 12,4 °C 15,8 °C
03.07.2015 05:35 23,5 °C 15,8 °C 58 % 80 % 1022,2 hPa 0,0 l/m² 1,8 km/h (1 Bft) W 270 ° 12,4 °C 15,8 °C
03.07.2015 05:37 23,5 °C 15,8 °C 58 % 80 % 1022,2 hPa 0,0 l/m² 0,0 km/h (0 Bft) N-NO 22 ° 12,4 °C 15,8 °C
03.07.2015 05:39 23,5 °C 15,8 °C 58 % 80 % 1022,3 hPa 0,0 l/m² 0,0 km/h (0 Bft) N-NO 22 ° 12,4 °C 15,8 °C
03.07.2015 05:41 23,5 °C 15,8 °C 58 % 80 % 1022,3 hPa 0,0 l/m² 0,0 km/h (0 Bft) W 270 ° 12,4 °C 15,8 °C
03.07.2015 05:43 23,4 °C 15,8 °C 58 % 81 % 1022,3 hPa 0,0 l/m² 0,0 km/h (0 Bft) N-NW 337 ° 12,5 °C 15,8 °C
03.07.2015 05:45 23,4 °C 15,9 °C 58 % 80 % 1022,2 hPa 0,0 l/m² 0,0 km/h (0 Bft) N-NW 337 ° 12,5 °C 15,9 °C
03.07.2015 05:47 23,5 °C 15,9 °C 58 % 81 % 1022,4 hPa 0,0 l/m² 0,0 km/h (0 Bft) W 270 ° 12,6 °C 15,9 °C
03.07.2015 05:49 23,4 °C 15,9 °C 58 % 81 % 1022,3 hPa 0,0 l/m² 0,0 km/h (0 Bft) W 270 ° 12,6 °C 15,9 °C
03.07.2015 05:51 23,5 °C 15,9 °C 58 % 81 % 1022,3 hPa 0,0 l/m² 0,0 km/h (0 Bft) W 270 ° 12,6 °C 15,9 °C
03.07.2015 05:53 23,4 °C 15,9 °C 58 % 80 % 1022,3 hPa 0,0 l/m² 0,0 km/h (0 Bft) S-SW 202 ° 12,5 °C 15,9 °C
03.07.2015 05:55 23,4 °C 15,8 °C 58 % 80 % 1022,3 hPa 0,0 l/m² 1,8 km/h (1 Bft) SW 225 ° 12,4 °C 15,8 °C
03.07.2015 05:57 23,4 °C 15,8 °C 58 % 81 % 1022,4 hPa 0,0 l/m² 0,0 km/h (0 Bft) SW 225 ° 12,5 °C 15,8 °C
03.07.2015 05:59 23,4 °C 15,9 °C 58 % 81 % 1022,6 hPa 0,0 l/m² 0,0 km/h (0 Bft) SW 225 ° 12,6 °C 15,9 °C
03.07.2015 06:01 23,5 °C 15,9 °C 58 % 81 % 1022,4 hPa 0,0 l/m² 0,0 km/h (0 Bft) S-SW 202 ° 12,6 °C 15,9 °C
03.07.2015 06:03 23,4 °C 15,9 °C 58 % 81 % 1022,4 hPa 0,0 l/m² 0,0 km/h (0 Bft) S-SW 202 ° 12,6 °C 15,9 °C
03.07.2015 06:05 23,4 °C 15,9 °C 58 % 81 % 1022,3 hPa 0,0 l/m² 0,0 km/h (0 Bft) S 180 ° 12,6 °C 15,9 °C
03.07.2015 06:07 23,4 °C 15,9 °C 58 % 81 % 1022,4 hPa 0,0 l/m² 0,0 km/h (0 Bft) S 180 ° 12,6 °C 15,9 °C
03.07.2015 06:09 23,5 °C 15,9 °C 58 % 80 % 1022,3 hPa 0,0 l/m² 0,0 km/h (0 Bft) S-SO 157 ° 12,5 °C 15,9 °C
03.07.2015 06:11 23,4 °C 16,0 °C 58 % 80 % 1022,3 hPa 0,0 l/m² 0,0 km/h (0 Bft) O-SO 112 ° 12,5 °C 16,0 °C
03.07.2015 06:13 23,4 °C 16,1 °C 58 % 81 % 1022,3 hPa 0,0 l/m² 1,8 km/h (1 Bft) O-SO 112 ° 12,8 °C 16,1 °C
03.07.2015 06:15 23,4 °C 16,2 °C 58 % 81 % 1022,3 hPa 0,0 l/m² 0,0 km/h (0 Bft) O-SO 112 ° 12,9 °C 16,2 °C
03.07.2015 06:17 23,4 °C 16,3 °C 58 % 81 % 1022,3 hPa 0,0 l/m² 0,0 km/h (0 Bft) O 90 ° 13,0 °C 16,3 °C
03.07.2015 06:19 23,4 °C 16,4 °C 58 % 81 % 1022,3 hPa 0,0 l/m² 0,0 km/h (0 Bft) O-NO 67 ° 13,1 °C 16,4 °C
03.07.2015 06:21 23,4 °C 16,4 °C 58 % 81 % 1022,4 hPa 0,0 l/m² 0,0 km/h (0 Bft) O-NO 67 ° 13,1 °C 16,4 °C
03.07.2015 06:23 23,4 °C 16,4 °C 58 % 81 % 1022,4 hPa 0,0 l/m² 0,0 km/h (0 Bft) NO 45 ° 13,1 °C 16,4 °C
03.07.2015 06:25 23,4 °C 16,6 °C 58 % 82 % 1022,4 hPa 0,0 l/m² 0,0 km/h (0 Bft) W-NW 292 ° 13,5 °C 16,6 °C
03.07.2015 06:27 23,4 °C 16,7 °C 58 % 82 % 1022,3 hPa 0,0 l/m² 0,0 km/h (0 Bft) W-NW 292 ° 13,6 °C 16,7 °C
03.07.2015 06:29 23,4 °C 16,8 °C 58 % 82 % 1022,3 hPa 0,0 l/m² 0,0 km/h (0 Bft) NW 315 ° 13,7 °C 16,8 °C
03.07.2015 06:31 23,4 °C 16,9 °C 58 % 82 % 1022,4 hPa 0,0 l/m² 0,0 km/h (0 Bft) W-NW 292 ° 13,8 °C 16,9 °C
03.07.2015 06:33 23,4 °C 17,1 °C 58 % 82 % 1022,3 hPa 0,0 l/m² 2,2 km/h (1 Bft) NW 315 ° 14,0 °C 17,1 °C
03.07.2015 06:35 23,4 °C 17,2 °C 58 % 82 % 1022,3 hPa 0,0 l/m² 0,0 km/h (0 Bft) W-NW 292 ° 14,1 °C 17,2 °C
03.07.2015 06:37 23,4 °C 17,3 °C 58 % 82 % 1022,4 hPa 0,0 l/m² 0,0 km/h (0 Bft) W 270 ° 14,2 °C 17,3 °C
03.07.2015 06:39 23,4 °C 17,4 °C 58 % 81 % 1022,4 hPa 0,0 l/m² 0,0 km/h (0 Bft) W-NW 292 ° 14,1 °C 17,4 °C
03.07.2015 06:41 23,4 °C 17,6 °C 58 % 81 % 1022,4 hPa 0,0 l/m² 2,9 km/h (1 Bft) W-SW 247 ° 14,3 °C 17,6 °C
03.07.2015 06:43 23,4 °C 17,8 °C 58 % 81 % 1022,4 hPa 0,0 l/m² 0,0 km/h (0 Bft) W-SW 247 ° 14,5 °C 17,8 °C
03.07.2015 06:45 23,4 °C 17,9 °C 58 % 81 % 1022,4 hPa 0,0 l/m² 1,8 km/h (1 Bft) W-SW 247 ° 14,6 °C 17,9 °C
03.07.2015 06:47 23,4 °C 18,0 °C 58 % 80 % 1022,4 hPa 0,0 l/m² 1,4 km/h (1 Bft) W-SW 247 ° 14,5 °C 18,0 °C
03.07.2015 06:49 23,4 °C 18,1 °C 58 % 80 % 1022,4 hPa 0,0 l/m² 1,4 km/h (1 Bft) W-SW 247 ° 14,6 °C 18,1 °C
03.07.2015 06:51 23,4 °C 18,3 °C 58 % 80 % 1022,5 hPa 0,0 l/m² 0,0 km/h (0 Bft) W-SW 247 ° 14,8 °C 18,3 °C
03.07.2015 06:53 23,4 °C 18,3 °C 58 % 80 % 1022,5 hPa 0,0 l/m² 0,0 km/h (0 Bft) W-SW 247 ° 14,8 °C 18,3 °C
03.07.2015 06:55 23,4 °C 18,4 °C 58 % 79 % 1022,4 hPa 0,0 l/m² 0,0 km/h (0 Bft) W-SW 247 ° 14,7 °C 18,4 °C
03.07.2015 06:57 23,4 °C 18,5 °C 58 % 79 % 1022,4 hPa 0,0 l/m² 0,0 km/h (0 Bft) W-SW 247 ° 14,8 °C 18,5 °C
03.07.2015 06:59 23,4 °C 18,6 °C 58 % 79 % 1022,4 hPa 0,0 l/m² 0,0 km/h (0 Bft) W-SW 247 ° 14,9 °C 18,6 °C
03.07.2015 07:01 23,4 °C 18,8 °C 58 % 78 % 1022,4 hPa 0,0 l/m² 0,0 km/h (0 Bft) W-SW 247 ° 14,9 °C 18,8 °C
03.07.2015 07:03 23,4 °C 18,9 °C 58 % 78 % 1022,4 hPa 0,0 l/m² 0,0 km/h (0 Bft) W-SW 247 ° 15,0 °C 18,9 °C
03.07.2015 07:05 23,4 °C 19,1 °C 58 % 78 % 1022,4 hPa 0,0 l/m² 0,0 km/h (0 Bft) SW 225 ° 15,2 °C 19,1 °C
03.07.2015 07:07 23,4 °C 19,2 °C 58 % 78 % 1022,5 hPa 0,0 l/m² 2,5 km/h (1 Bft) SW 225 ° 15,3 °C 19,2 °C
03.07.2015 07:09 23,4 °C 19,3 °C 58 % 78 % 1022,5 hPa 0,0 l/m² 0,0 km/h (0 Bft) SW 225 ° 15,4 °C 19,3 °C
03.07.2015 07:11 23,4 °C 19,4 °C 58 % 77 % 1022,4 hPa 0,0 l/m² 1,8 km/h (1 Bft) SW 225 ° 15,3 °C 19,4 °C
03.07.2015 07:13 23,4 °C 19,6 °C 58 % 77 % 1022,5 hPa 0,0 l/m² 0,0 km/h (0 Bft) SW 225 ° 15,5 °C 19,6 °C
03.07.2015 07:15 23,4 °C 19,8 °C 58 % 76 % 1022,5 hPa 0,0 l/m² 0,0 km/h (0 Bft) SW 225 ° 15,4 °C 19,8 °C
03.07.2015 07:17 23,4 °C 19,9 °C 58 % 76 % 1022,5 hPa 0,0 l/m² 0,0 km/h (0 Bft) SW 225 ° 15,5 °C 19,9 °C
03.07.2015 07:19 23,4 °C 20,0 °C 58 % 76 % 1022,5 hPa 0,0 l/m² 0,0 km/h (0 Bft) SW 225 ° 15,6 °C 20,0 °C
03.07.2015 07:21 23,4 °C 20,2 °C 58 % 75 % 1022,5 hPa 0,0 l/m² 0,0 km/h (0 Bft) SW 225 ° 15,6 °C 20,2 °C
03.07.2015 07:23 23,4 °C 20,2 °C 58 % 75 % 1022,5 hPa 0,0 l/m² 0,0 km/h (0 Bft) SW 225 ° 15,6 °C 20,2 °C
03.07.2015 07:25 23,4 °C 20,3 °C 58 % 75 % 1022,5 hPa 0,0 l/m² 0,0 km/h (0 Bft) SW 225 ° 15,7 °C 20,3 °C
03.07.2015 07:27 23,4 °C 20,5 °C 58 % 74 % 1022,5 hPa 0,0 l/m² 0,0 km/h (0 Bft) SW 225 ° 15,7 °C 20,5 °C
03.07.2015 07:29 23,4 °C 20,6 °C 58 % 74 % 1022,4 hPa 0,0 l/m² 0,0 km/h (0 Bft) SW 225 ° 15,8 °C 20,6 °C
03.07.2015 07:31 23,4 °C 20,8 °C 58 % 74 % 1022,4 hPa 0,0 l/m² 0,0 km/h (0 Bft) SW 225 ° 16,0 °C 20,8 °C
03.07.2015 07:33 23,4 °C 20,9 °C 58 % 74 % 1022,4 hPa 0,0 l/m² 0,0 km/h (0 Bft) SW 225 ° 16,1 °C 20,9 °C
03.07.2015 07:35 23,4 °C 20,9 °C 58 % 73 % 1022,4 hPa 0,0 l/m² 0,0 km/h (0 Bft) SW 225 ° 15,9 °C 20,9 °C
03.07.2015 07:37 23,4 °C 21,1 °C 58 % 73 % 1022,4 hPa 0,0 l/m² 0,0 km/h (0 Bft) SW 225 ° 16,1 °C 21,1 °C
03.07.2015 07:39 23,4 °C 21,3 °C 58 % 72 % 1022,6 hPa 0,0 l/m² 0,0 km/h (0 Bft) SW 225 ° 16,0 °C 21,3 °C
03.07.2015 07:41 23,4 °C 21,3 °C 58 % 72 % 1022,5 hPa 0,0 l/m² 0,0 km/h (0 Bft) SW 225 ° 16,0 °C 21,3 °C
03.07.2015 07:43 23,4 °C 21,4 °C 58 % 71 % 1022,5 hPa 0,0 l/m² 0,0 km/h (0 Bft) SW 225 ° 15,9 °C 21,4 °C
03.07.2015 07:45 23,4 °C 21,5 °C 58 % 72 % 1022,4 hPa 0,0 l/m² 0,0 km/h (0 Bft) SW 225 ° 16,2 °C 21,5 °C
03.07.2015 07:47 23,4 °C 21,7 °C 58 % 71 % 1022,5 hPa 0,0 l/m² 0,0 km/h (0 Bft) SO 135 ° 16,2 °C 21,7 °C
03.07.2015 07:49 23,4 °C 21,9 °C 58 % 71 % 1022,4 hPa 0,0 l/m² 0,0 km/h (0 Bft) SO 135 ° 16,4 °C 21,9 °C
03.07.2015 07:51 23,4 °C 21,9 °C 58 % 70 % 1022,5 hPa 0,0 l/m² 0,0 km/h (0 Bft) SO 135 ° 16,2 °C 21,9 °C
03.07.2015 07:53 23,4 °C 21,9 °C 58 % 70 % 1022,6 hPa 0,0 l/m² 0,0 km/h (0 Bft) SO 135 ° 16,2 °C 21,9 °C
03.07.2015 07:55 23,4 °C 22,1 °C 58 % 70 % 1022,4 hPa 0,0 l/m² 0,0 km/h (0 Bft) SO 135 ° 16,4 °C 22,1 °C
03.07.2015 07:57 23,4 °C 22,3 °C 58 % 70 % 1022,5 hPa 0,0 l/m² 1,4 km/h (1 Bft) O-SO 112 ° 16,6 °C 22,3 °C
03.07.2015 07:59 23,4 °C 22,4 °C 58 % 70 % 1022,6 hPa 0,0 l/m² 3,6 km/h (1 Bft) O-SO 112 ° 16,7 °C 22,4 °C
03.07.2015 08:01 23,4 °C 22,6 °C 58 % 69 % 1022,5 hPa 0,0 l/m² 0,0 km/h (0 Bft) SO 135 ° 16,6 °C 22,6 °C
03.07.2015 08:03 23,4 °C 22,8 °C 58 % 69 % 1022,6 hPa 0,0 l/m² 0,0 km/h (0 Bft) O-SO 112 ° 16,8 °C 22,8 °C
03.07.2015 08:05 23,4 °C 22,9 °C 58 % 68 % 1022,5 hPa 0,0 l/m² 0,0 km/h (0 Bft) SO 135 ° 16,7 °C 22,9 °C
03.07.2015 08:07 23,4 °C 23,1 °C 58 % 67 % 1022,6 hPa 0,0 l/m² 2,9 km/h (1 Bft) S-SO 157 ° 16,6 °C 23,1 °C
03.07.2015 08:09 23,4 °C 23,3 °C 58 % 67 % 1022,6 hPa 0,0 l/m² 4,0 km/h (1 Bft) S-SW 202 ° 16,8 °C 23,3 °C
03.07.2015 08:11 23,4 °C 23,4 °C 58 % 66 % 1022,5 hPa 0,0 l/m² 5,0 km/h (1 Bft) S-SW 202 ° 16,7 °C 23,4 °C
03.07.2015 08:13 23,4 °C 23,6 °C 58 % 66 % 1022,5 hPa 0,0 l/m² 2,2 km/h (1 Bft) S-SO 157 ° 16,9 °C 23,6 °C
03.07.2015 08:15 23,4 °C 23,7 °C 58 % 65 % 1022,5 hPa 0,0 l/m² 2,9 km/h (1 Bft) S-SO 157 ° 16,7 °C 23,7 °C
03.07.2015 08:17 23,4 °C 23,9 °C 58 % 65 % 1022,6 hPa 0,0 l/m² 0,0 km/h (0 Bft) SO 135 ° 16,9 °C 23,9 °C
03.07.2015 08:19 23,4 °C 24,0 °C 58 % 64 % 1022,6 hPa 0,0 l/m² 0,0 km/h (0 Bft) SO 135 ° 16,8 °C 24,0 °C
03.07.2015 08:21 23,4 °C 24,2 °C 58 % 63 % 1022,6 hPa 0,0 l/m² 6,1 km/h (2 Bft) O-SO 112 ° 16,7 °C 24,2 °C
03.07.2015 08:23 23,4 °C 24,2 °C 58 % 63 % 1022,7 hPa 0,0 l/m² 6,1 km/h (2 Bft) O-SO 112 ° 16,7 °C 24,2 °C
03.07.2015 08:25 23,4 °C 24,4 °C 58 % 62 % 1022,6 hPa 0,0 l/m² 8,6 km/h (2 Bft) O-SO 112 ° 16,6 °C 23,8 °C
03.07.2015 08:27 23,4 °C 24,5 °C 58 % 61 % 1022,6 hPa 0,0 l/m² 6,5 km/h (2 Bft) O-SO 112 ° 16,5 °C 24,5 °C
03.07.2015 08:29 23,4 °C 24,6 °C 58 % 61 % 1022,6 hPa 0,0 l/m² 4,3 km/h (1 Bft) SO 135 ° 16,6 °C 24,6 °C
03.07.2015 08:31 23,4 °C 24,8 °C 58 % 60 % 1022,6 hPa 0,0 l/m² 6,1 km/h (2 Bft) SO 135 ° 16,5 °C 24,8 °C
03.07.2015 08:33 23,4 °C 24,9 °C 58 % 60 % 1022,6 hPa 0,0 l/m² 4,7 km/h (1 Bft) O 90 ° 16,6 °C 24,9 °C
03.07.2015 08:35 23,4 °C 25,1 °C 58 % 60 % 1022,6 hPa 0,0 l/m² 7,2 km/h (2 Bft) O 90 ° 16,8 °C 24,9 °C
03.07.2015 08:37 23,4 °C 25,3 °C 58 % 60 % 1022,6 hPa 0,0 l/m² 4,0 km/h (1 Bft) SO 135 ° 17,0 °C 25,3 °C
03.07.2015 08:39 23,4 °C 25,4 °C 58 % 59 % 1022,7 hPa 0,0 l/m² 3,2 km/h (1 Bft) SO 135 ° 16,8 °C 25,4 °C
03.07.2015 08:41 23,4 °C 25,5 °C 58 % 59 % 1022,6 hPa 0,0 l/m² 4,0 km/h (1 Bft) S 180 ° 16,9 °C 25,5 °C
03.07.2015 08:43 23,4 °C 25,7 °C 58 % 59 % 1022,7 hPa 0,0 l/m² 4,3 km/h (1 Bft) S-SO 157 ° 17,1 °C 25,7 °C
03.07.2015 08:45 23,4 °C 25,9 °C 58 % 58 % 1022,7 hPa 0,0 l/m² 2,5 km/h (1 Bft) S-SO 157 ° 17,0 °C 25,9 °C
03.07.2015 08:47 23,4 °C 25,9 °C 58 % 58 % 1022,7 hPa 0,0 l/m² 2,5 km/h (1 Bft) S-SO 157 ° 17,0 °C 25,9 °C
03.07.2015 08:49 23,4 °C 26,1 °C 58 % 57 % 1022,9 hPa 0,0 l/m² 2,9 km/h (1 Bft) W 270 ° 16,9 °C 26,1 °C
03.07.2015 08:51 23,4 °C 26,1 °C 58 % 57 % 1022,8 hPa 0,0 l/m² 0,0 km/h (0 Bft) W-NW 292 ° 16,9 °C 26,1 °C
03.07.2015 08:53 23,4 °C 26,2 °C 58 % 57 % 1022,8 hPa 0,0 l/m² 0,0 km/h (0 Bft) W-NW 292 ° 17,0 °C 26,2 °C
03.07.2015 08:55 23,4 °C 26,2 °C 58 % 57 % 1022,9 hPa 0,0 l/m² 6,5 km/h (2 Bft) W 270 ° 17,0 °C 26,2 °C
03.07.2015 08:57 23,4 °C 26,4 °C 58 % 56 % 1022,8 hPa 0,0 l/m² 3,6 km/h (1 Bft) S 180 ° 16,9 °C 26,4 °C
03.07.2015 08:59 23,4 °C 26,5 °C 58 % 56 % 1022,9 hPa 0,0 l/m² 8,3 km/h (2 Bft) SW 225 ° 17,0 °C 26,1 °C
03.07.2015 09:01 23,4 °C 26,7 °C 58 % 55 % 1023,0 hPa 0,0 l/m² 6,5 km/h (2 Bft) W-SW 247 ° 16,9 °C 26,7 °C
03.07.2015 09:03 23,4 °C 26,8 °C 58 % 55 % 1023,0 hPa 0,0 l/m² 9,7 km/h (2 Bft) W 270 ° 17,0 °C 26,2 °C
03.07.2015 09:05 23,4 °C 26,8 °C 58 % 55 % 1023,1 hPa 0,0 l/m² 11,2 km/h (2 Bft) W 270 ° 17,0 °C 26,0 °C
03.07.2015 09:07 23,4 °C 26,9 °C 58 % 55 % 1023,0 hPa 0,0 l/m² 6,5 km/h (2 Bft) SW 225 ° 17,1 °C 26,9 °C
03.07.2015 09:09 23,4 °C 26,9 °C 58 % 55 % 1023,0 hPa 0,0 l/m² 4,0 km/h (1 Bft) W 270 ° 17,1 °C 26,9 °C
03.07.2015 09:11 23,4 °C 26,9 °C 58 % 55 % 1023,0 hPa 0,0 l/m² 3,2 km/h (1 Bft) W 270 ° 17,1 °C 26,9 °C
03.07.2015 09:13 23,4 °C 27,0 °C 58 % 55 % 1023,0 hPa 0,0 l/m² 8,6 km/h (2 Bft) W-SW 247 ° 17,2 °C 26,6 °C
03.07.2015 09:15 23,4 °C 27,1 °C 58 % 54 % 1023,1 hPa 0,0 l/m² 7,2 km/h (2 Bft) W-SW 247 ° 17,0 °C 27,0 °C
03.07.2015 09:17 23,4 °C 27,1 °C 58 % 54 % 1023,1 hPa 0,0 l/m² 6,8 km/h (2 Bft) W 270 ° 17,0 °C 27,0 °C
03.07.2015 09:19 23,4 °C 27,2 °C 58 % 54 % 1023,1 hPa 0,0 l/m² 4,7 km/h (1 Bft) W-SW 247 ° 17,1 °C 27,2 °C
03.07.2015 09:21 23,4 °C 27,3 °C 58 % 54 % 1023,2 hPa 0,0 l/m² 7,2 km/h (2 Bft) W-SW 247 ° 17,2 °C 27,2 °C
03.07.2015 09:23 23,4 °C 27,4 °C 58 % 54 % 1023,1 hPa 0,0 l/m² 8,3 km/h (2 Bft) W-SW 247 ° 17,3 °C 27,1 °C
03.07.2015 09:25 23,4 °C 27,4 °C 58 % 54 % 1023,1 hPa 0,0 l/m² 8,3 km/h (2 Bft) W-SW 247 ° 17,3 °C 27,1 °C
03.07.2015 09:27 23,4 °C 27,5 °C 58 % 54 % 1023,1 hPa 0,0 l/m² 4,7 km/h (1 Bft) W 270 ° 17,3 °C 27,5 °C
03.07.2015 09:29 23,4 °C 27,6 °C 58 % 54 % 1023,0 hPa 0,0 l/m² 0,0 km/h (0 Bft) W-SW 247 ° 17,4 °C 27,6 °C
03.07.2015 09:31 23,4 °C 27,8 °C 58 % 54 % 1023,0 hPa 0,0 l/m² 0,0 km/h (0 Bft) SW 225 ° 17,6 °C 27,8 °C
03.07.2015 09:33 23,4 °C 27,9 °C 58 % 54 % 1023,0 hPa 0,0 l/m² 5,8 km/h (2 Bft) S 180 ° 17,7 °C 27,9 °C
03.07.2015 09:35 23,4 °C 27,9 °C 58 % 54 % 1023,1 hPa 0,0 l/m² 6,8 km/h (2 Bft) W-SW 247 ° 17,7 °C 27,8 °C
03.07.2015 09:37 23,4 °C 28,1 °C 58 % 54 % 1023,1 hPa 0,0 l/m² 7,2 km/h (2 Bft) SW 225 ° 17,9 °C 28,0 °C
03.07.2015 09:39 23,4 °C 28,2 °C 58 % 53 % 1023,1 hPa 0,0 l/m² 0,0 km/h (0 Bft) W-SW 247 ° 17,7 °C 28,2 °C
03.07.2015 09:41 23,4 °C 28,3 °C 58 % 53 % 1023,1 hPa 0,0 l/m² 6,1 km/h (2 Bft) S-SO 157 ° 17,8 °C 28,3 °C
03.07.2015 09:43 23,4 °C 28,4 °C 58 % 53 % 1023,1 hPa 0,0 l/m² 4,3 km/h (1 Bft) S-SO 157 ° 17,9 °C 28,4 °C
03.07.2015 09:45 23,4 °C 28,6 °C 58 % 53 % 1023,2 hPa 0,0 l/m² 4,0 km/h (1 Bft) S 180 ° 18,1 °C 28,6 °C
03.07.2015 09:47 23,4 °C 28,8 °C 58 % 52 % 1023,1 hPa 0,0 l/m² 5,8 km/h (2 Bft) S-SW 202 ° 17,9 °C 28,8 °C
03.07.2015 09:49 23,4 °C 28,8 °C 58 % 52 % 1023,1 hPa 0,0 l/m² 0,0 km/h (0 Bft) S 180 ° 17,9 °C 28,8 °C
03.07.2015 09:51 23,4 °C 28,9 °C 58 % 52 % 1023,1 hPa 0,0 l/m² 4,7 km/h (1 Bft) SW 225 ° 18,0 °C 28,9 °C
03.07.2015 09:53 23,4 °C 28,9 °C 58 % 52 % 1023,2 hPa 0,0 l/m² 6,1 km/h (2 Bft) W-SW 247 ° 18,0 °C 28,9 °C
03.07.2015 09:55 23,4 °C 28,9 °C 58 % 52 % 1023,2 hPa 0,0 l/m² 6,1 km/h (2 Bft) W-SW 247 ° 18,0 °C 28,9 °C
03.07.2015 09:57 23,4 °C 29,0 °C 58 % 51 % 1023,1 hPa 0,0 l/m² 4,7 km/h (1 Bft) W 270 ° 17,8 °C 29,0 °C
03.07.2015 09:59 23,4 °C 29,1 °C 58 % 51 % 1023,1 hPa 0,0 l/m² 2,9 km/h (1 Bft) SW 225 ° 17,9 °C 29,1 °C
03.07.2015 10:01 23,4 °C 29,1 °C 58 % 51 % 1023,2 hPa 0,0 l/m² 6,1 km/h (2 Bft) W-SW 247 ° 17,9 °C 29,1 °C
03.07.2015 10:03 23,4 °C 29,3 °C 58 % 51 % 1023,2 hPa 0,0 l/m² 5,4 km/h (2 Bft) S 180 ° 18,1 °C 29,3 °C
03.07.2015 10:05 23,4 °C 29,4 °C 58 % 51 % 1023,2 hPa 0,0 l/m² 3,6 km/h (1 Bft) S-SO 157 ° 18,2 °C 29,4 °C
03.07.2015 10:07 23,4 °C 29,5 °C 58 % 51 % 1023,2 hPa 0,0 l/m² 7,6 km/h (2 Bft) W 270 ° 18,3 °C 29,4 °C
03.07.2015 10:09 23,4 °C 29,5 °C 58 % 50 % 1023,2 hPa 0,0 l/m² 5,0 km/h (1 Bft) W 270 ° 18,0 °C 29,5 °C
03.07.2015 10:11 23,4 °C 29,6 °C 58 % 50 % 1023,3 hPa 0,0 l/m² 6,1 km/h (2 Bft) W-SW 247 ° 18,1 °C 29,6 °C
03.07.2015 10:13 23,4 °C 29,6 °C 58 % 50 % 1023,2 hPa 0,0 l/m² 4,3 km/h (1 Bft) W-NW 292 ° 18,1 °C 29,6 °C
03.07.2015 10:15 23,4 °C 29,8 °C 58 % 49 % 1023,4 hPa 0,0 l/m² 8,6 km/h (2 Bft) W 270 ° 17,9 °C 29,6 °C
03.07.2015 10:17 23,4 °C 29,8 °C 58 % 49 % 1023,4 hPa 0,0 l/m² 7,6 km/h (2 Bft) W 270 ° 17,9 °C 29,7 °C
03.07.2015 10:19 23,4 °C 29,8 °C 58 % 50 % 1023,5 hPa 0,0 l/m² 4,0 km/h (1 Bft) NW 315 ° 18,2 °C 29,8 °C
03.07.2015 10:21 23,4 °C 29,9 °C 58 % 50 % 1023,5 hPa 0,0 l/m² 9,4 km/h (2 Bft) NW 315 ° 18,3 °C 29,6 °C
03.07.2015 10:23 23,4 °C 29,9 °C 58 % 49 % 1023,6 hPa 0,0 l/m² 5,0 km/h (1 Bft) W 270 ° 18,0 °C 29,9 °C
03.07.2015 10:25 23,4 °C 29,9 °C 58 % 49 % 1023,5 hPa 0,0 l/m² 5,0 km/h (1 Bft) W 270 ° 18,0 °C 29,9 °C
03.07.2015 10:27 23,4 °C 30,0 °C 58 % 50 % 1023,7 hPa 0,0 l/m² 10,8 km/h (2 Bft) W-NW 292 ° 18,4 °C 29,6 °C
03.07.2015 10:29 23,4 °C 30,0 °C 58 % 49 % 1023,7 hPa 0,0 l/m² 9,0 km/h (2 Bft) N-NW 337 ° 18,1 °C 29,8 °C
03.07.2015 10:31 23,4 °C 30,1 °C 58 % 49 % 1023,6 hPa 0,0 l/m² 16,9 km/h (3 Bft) NW 315 ° 18,2 °C 29,4 °C
03.07.2015 10:33 23,4 °C 30,2 °C 58 % 48 % 1023,7 hPa 0,0 l/m² 14,8 km/h (3 Bft) N-NW 337 ° 17,9 °C 29,6 °C
03.07.2015 10:35 23,4 °C 30,2 °C 58 % 48 % 1023,8 hPa 0,0 l/m² 7,6 km/h (2 Bft) N-NW 337 ° 17,9 °C 30,1 °C
03.07.2015 10:37 23,4 °C 30,3 °C 58 % 49 % 1023,8 hPa 0,0 l/m² 8,3 km/h (2 Bft) NW 315 ° 18,4 °C 30,1 °C
03.07.2015 10:39 23,4 °C 30,4 °C 58 % 48 % 1023,8 hPa 0,0 l/m² 9,7 km/h (2 Bft) W 270 ° 18,1 °C 30,1 °C
03.07.2015 10:41 23,4 °C 30,4 °C 58 % 48 % 1023,8 hPa 0,0 l/m² 3,2 km/h (1 Bft) N-NO 22 ° 18,1 °C 30,4 °C
03.07.2015 10:43 23,4 °C 30,4 °C 58 % 48 % 1023,9 hPa 0,0 l/m² 14,8 km/h (3 Bft) NW 315 ° 18,1 °C 29,9 °C
03.07.2015 10:45 23,4 °C 30,3 °C 58 % 48 % 1023,9 hPa 0,0 l/m² 15,5 km/h (3 Bft) N-NW 337 ° 18,0 °C 29,7 °C
03.07.2015 10:47 23,4 °C 30,3 °C 58 % 47 % 1024,0 hPa 0,0 l/m² 25,2 km/h (4 Bft) NW 315 ° 17,7 °C 29,3 °C
03.07.2015 10:49 23,4 °C 30,2 °C 58 % 48 % 1024,0 hPa 0,0 l/m² 21,6 km/h (4 Bft) NW 315 ° 17,9 °C 29,3 °C
03.07.2015 10:51 23,4 °C 30,2 °C 58 % 47 % 1024,1 hPa 0,0 l/m² 16,6 km/h (3 Bft) W-NW 292 ° 17,6 °C 29,5 °C
03.07.2015 10:53 23,4 °C 30,1 °C 58 % 47 % 1024,1 hPa 0,0 l/m² 25,2 km/h (4 Bft) NW 315 ° 17,5 °C 29,1 °C
03.07.2015 10:55 23,4 °C 30,1 °C 58 % 47 % 1024,2 hPa 0,0 l/m² 25,2 km/h (4 Bft) NW 315 ° 17,5 °C 29,1 °C
03.07.2015 10:57 23,4 °C 29,9 °C 58 % 48 % 1024,2 hPa 0,0 l/m² 32,4 km/h (5 Bft) W-NW 292 ° 17,7 °C 28,6 °C
03.07.2015 10:59 23,4 °C 29,5 °C 58 % 47 % 1024,2 hPa 0,0 l/m² 5,4 km/h (2 Bft) W 270 ° 17,0 °C 29,5 °C
03.07.2015 11:01 23,4 °C 29,2 °C 58 % 47 % 1024,2 hPa 0,0 l/m² 15,8 km/h (3 Bft) NW 315 ° 16,7 °C 28,3 °C
03.07.2015 11:03 23,4 °C 29,1 °C 58 % 48 % 1024,2 hPa 0,0 l/m² 12,2 km/h (2 Bft) W-NW 292 ° 16,9 °C 28,5 °C
03.07.2015 11:05 23,4 °C 29,1 °C 58 % 48 % 1024,3 hPa 0,0 l/m² 13,0 km/h (3 Bft) W 270 ° 16,9 °C 28,4 °C
03.07.2015 11:07 23,4 °C 29,1 °C 58 % 49 % 1024,1 hPa 0,0 l/m² 8,3 km/h (2 Bft) W-NW 292 ° 17,3 °C 28,9 °C
03.07.2015 11:09 23,4 °C 29,1 °C 58 % 49 % 1024,2 hPa 0,0 l/m² 10,8 km/h (2 Bft) NW 315 ° 17,3 °C 28,6 °C
03.07.2015 11:11 23,4 °C 29,1 °C 58 % 49 % 1024,1 hPa 0,0 l/m² 18,0 km/h (3 Bft) W 270 ° 17,3 °C 28,1 °C
03.07.2015 11:13 23,4 °C 29,1 °C 58 % 50 % 1024,1 hPa 0,0 l/m² 7,6 km/h (2 Bft) N-NO 22 ° 17,6 °C 29,0 °C
03.07.2015 11:15 23,5 °C 29,2 °C 58 % 50 % 1024,1 hPa 0,0 l/m² 10,1 km/h (2 Bft) W-NW 292 ° 17,7 °C 28,8 °C
03.07.2015 11:17 23,5 °C 29,4 °C 58 % 50 % 1024,1 hPa 0,0 l/m² 8,6 km/h (2 Bft) N 360 ° 17,9 °C 29,2 °C
03.07.2015 11:19 23,4 °C 29,5 °C 58 % 50 % 1024,1 hPa 0,0 l/m² 11,2 km/h (2 Bft) N-NW 337 ° 18,0 °C 29,0 °C
03.07.2015 11:21 23,4 °C 29,6 °C 58 % 50 % 1024,1 hPa 0,0 l/m² 15,8 km/h (3 Bft) W-NW 292 ° 18,1 °C 28,8 °C
03.07.2015 11:23 23,4 °C 29,8 °C 58 % 50 % 1024,0 hPa 0,0 l/m² 6,8 km/h (2 Bft) N-NW 337 ° 18,2 °C 29,8 °C
03.07.2015 11:25 23,4 °C 29,8 °C 58 % 50 % 1024,0 hPa 0,0 l/m² 6,8 km/h (2 Bft) N-NW 337 ° 18,2 °C 29,8 °C
03.07.2015 11:27 23,5 °C 29,9 °C 58 % 49 % 1024,1 hPa 0,0 l/m² 13,3 km/h (3 Bft) N-NO 22 ° 18,0 °C 29,3 °C
03.07.2015 11:29 23,4 °C 30,1 °C 58 % 49 % 1024,0 hPa 0,0 l/m² 10,8 km/h (2 Bft) N-NW 337 ° 18,2 °C 29,7 °C
03.07.2015 11:31 23,5 °C 30,2 °C 58 % 49 % 1024,1 hPa 0,0 l/m² 4,7 km/h (1 Bft) NW 315 ° 18,3 °C 30,2 °C
03.07.2015 11:33 23,5 °C 30,2 °C 58 % 49 % 1024,2 hPa 0,0 l/m² 10,8 km/h (2 Bft) N-NW 337 ° 18,3 °C 29,9 °C
03.07.2015 11:35 23,5 °C 30,2 °C 58 % 49 % 1024,1 hPa 0,0 l/m² 19,4 km/h (3 Bft) N-NO 22 ° 18,3 °C 29,4 °C
03.07.2015 11:37 23,5 °C 30,1 °C 58 % 49 % 1024,1 hPa 0,0 l/m² 6,1 km/h (2 Bft) N-NW 337 ° 18,2 °C 30,1 °C
03.07.2015 11:39 23,5 °C 30,1 °C 58 % 49 % 1024,1 hPa 0,0 l/m² 4,7 km/h (1 Bft) NO 45 ° 18,2 °C 30,1 °C
03.07.2015 11:41 23,5 °C 30,1 °C 58 % 49 % 1024,1 hPa 0,0 l/m² 5,0 km/h (1 Bft) W 270 ° 18,2 °C 30,1 °C
03.07.2015 11:43 23,4 °C 30,2 °C 58 % 49 % 1024,2 hPa 0,0 l/m² 7,9 km/h (2 Bft) NW 315 ° 18,3 °C 30,1 °C
03.07.2015 11:45 23,5 °C 30,3 °C 58 % 48 % 1024,2 hPa 0,0 l/m² 10,1 km/h (2 Bft) W 270 ° 18,0 °C 30,0 °C
03.07.2015 11:47 23,5 °C 30,3 °C 58 % 48 % 1024,3 hPa 0,0 l/m² 15,8 km/h (3 Bft) N 360 ° 18,0 °C 29,7 °C
03.07.2015 11:49 23,5 °C 30,2 °C 58 % 48 % 1024,3 hPa 0,0 l/m² 14,4 km/h (3 Bft) N 360 ° 17,9 °C 29,6 °C
03.07.2015 11:51 23,5 °C 30,3 °C 58 % 48 % 1024,3 hPa 0,0 l/m² 9,7 km/h (2 Bft) W-NW 292 ° 18,0 °C 30,0 °C
03.07.2015 11:53 23,5 °C 30,4 °C 58 % 48 % 1024,4 hPa 0,0 l/m² 12,6 km/h (3 Bft) W-NW 292 ° 18,1 °C 30,0 °C
03.07.2015 11:55 23,4 °C 30,5 °C 58 % 48 % 1024,3 hPa 0,0 l/m² 12,6 km/h (3 Bft) W-NW 292 ° 18,2 °C 30,1 °C
03.07.2015 11:57 23,4 °C 30,5 °C 58 % 48 % 1024,2 hPa 0,0 l/m² 10,4 km/h (2 Bft) W-NW 292 ° 18,2 °C 30,2 °C
03.07.2015 11:59 23,5 °C 30,6 °C 58 % 47 % 1024,1 hPa 0,0 l/m² 14,8 km/h (3 Bft) N 360 ° 18,0 °C 30,1 °C
03.07.2015 12:01 23,5 °C 30,6 °C 58 % 47 % 1024,0 hPa 0,0 l/m² 7,2 km/h (2 Bft) NW 315 ° 18,0 °C 30,5 °C
03.07.2015 12:03 23,5 °C 30,5 °C 58 % 47 % 1024,0 hPa 0,0 l/m² 5,8 km/h (2 Bft) W-NW 292 ° 17,9 °C 30,5 °C
03.07.2015 12:05 23,5 °C 30,4 °C 58 % 47 % 1023,9 hPa 0,0 l/m² 5,8 km/h (2 Bft) N 360 ° 17,8 °C 30,4 °C
03.07.2015 12:07 23,5 °C 30,5 °C 58 % 47 % 1023,9 hPa 0,0 l/m² 4,7 km/h (1 Bft) NO 45 ° 17,9 °C 30,5 °C
03.07.2015 12:09 23,5 °C 30,7 °C 58 % 47 % 1023,9 hPa 0,0 l/m² 7,9 km/h (2 Bft) N 360 ° 18,1 °C 30,6 °C
03.07.2015 12:11 23,5 °C 30,8 °C 58 % 47 % 1023,8 hPa 0,0 l/m² 14,4 km/h (3 Bft) N 360 ° 18,2 °C 30,4 °C
03.07.2015 12:13 23,5 °C 30,9 °C 58 % 47 % 1023,8 hPa 0,0 l/m² 14,4 km/h (3 Bft) N 360 ° 18,2 °C 30,5 °C
03.07.2015 12:15 23,5 °C 30,9 °C 58 % 46 % 1023,8 hPa 0,0 l/m² 11,2 km/h (2 Bft) NW 315 ° 17,9 °C 30,6 °C
03.07.2015 12:17 23,5 °C 30,5 °C 58 % 46 % 1023,8 hPa 0,0 l/m² 6,5 km/h (2 Bft) NW 315 ° 17,5 °C 30,5 °C
03.07.2015 12:19 23,5 °C 30,4 °C 58 % 47 % 1023,8 hPa 0,0 l/m² 11,9 km/h (2 Bft) N-NW 337 ° 17,8 °C 30,0 °C
03.07.2015 12:21 23,5 °C 30,5 °C 58 % 47 % 1023,7 hPa 0,0 l/m² 9,0 km/h (2 Bft) W-NW 292 ° 17,9 °C 30,3 °C
03.07.2015 12:23 23,5 °C 30,5 °C 58 % 47 % 1023,7 hPa 0,0 l/m² 6,8 km/h (2 Bft) N-NW 337 ° 17,9 °C 30,5 °C
03.07.2015 12:25 23,5 °C 30,5 °C 58 % 47 % 1023,6 hPa 0,0 l/m² 4,0 km/h (1 Bft) SO 135 ° 17,9 °C 30,5 °C
03.07.2015 12:27 23,5 °C 30,5 °C 58 % 47 % 1023,7 hPa 0,0 l/m² 4,0 km/h (1 Bft) SO 135 ° 17,9 °C 30,5 °C
03.07.2015 12:29 23,5 °C 30,8 °C 58 % 47 % 1023,7 hPa 0,0 l/m² 4,7 km/h (1 Bft) N 360 ° 18,2 °C 30,8 °C
03.07.2015 12:31 23,5 °C 31,2 °C 58 % 47 % 1023,7 hPa 0,0 l/m² 6,1 km/h (2 Bft) NW 315 ° 18,5 °C 31,2 °C
03.07.2015 12:33 23,5 °C 31,1 °C 58 % 46 % 1023,5 hPa 0,0 l/m² 10,8 km/h (2 Bft) N-NO 22 ° 18,1 °C 30,9 °C
03.07.2015 12:35 23,5 °C 31,2 °C 58 % 46 % 1023,5 hPa 0,0 l/m² 10,8 km/h (2 Bft) O-NO 67 ° 18,2 °C 31,0 °C
03.07.2015 12:37 23,5 °C 31,1 °C 58 % 46 % 1023,4 hPa 0,0 l/m² 8,3 km/h (2 Bft) O-NO 67 ° 18,1 °C 31,0 °C
03.07.2015 12:39 23,5 °C 31,1 °C 58 % 46 % 1023,3 hPa 0,0 l/m² 3,6 km/h (1 Bft) N-NW 337 ° 18,1 °C 31,1 °C
03.07.2015 12:41 23,5 °C 31,0 °C 58 % 46 % 1023,3 hPa 0,0 l/m² 9,4 km/h (2 Bft) N-NO 22 ° 18,0 °C 30,8 °C
03.07.2015 12:43 23,5 °C 30,9 °C 58 % 46 % 1023,1 hPa 0,0 l/m² 4,7 km/h (1 Bft) N-NO 22 ° 17,9 °C 30,9 °C
03.07.2015 12:45 23,5 °C 30,9 °C 58 % 46 % 1023,1 hPa 0,0 l/m² 8,3 km/h (2 Bft) N-NO 22 ° 17,9 °C 30,8 °C
03.07.2015 12:47 23,5 °C 30,9 °C 58 % 46 % 1023,0 hPa 0,0 l/m² 0,0 km/h (0 Bft) S-SW 202 ° 17,9 °C 30,9 °C
03.07.2015 12:49 23,5 °C 31,1 °C 58 % 46 % 1022,9 hPa 0,0 l/m² 7,2 km/h (2 Bft) O 90 ° 18,1 °C 31,1 °C
03.07.2015 12:51 23,5 °C 31,3 °C 58 % 45 % 1022,8 hPa 0,0 l/m² 5,0 km/h (1 Bft) N-NO 22 ° 17,9 °C 31,3 °C
03.07.2015 12:53 23,5 °C 31,1 °C 58 % 44 % 1022,8 hPa 0,0 l/m² 0,0 km/h (0 Bft) O 90 ° 17,4 °C 31,1 °C
03.07.2015 12:55 23,5 °C 31,3 °C 58 % 45 % 1022,8 hPa 0,0 l/m² 6,1 km/h (2 Bft) O-SO 112 ° 17,9 °C 31,3 °C
03.07.2015 12:57 23,5 °C 31,3 °C 58 % 45 % 1022,7 hPa 0,0 l/m² 6,1 km/h (2 Bft) O-SO 112 ° 17,9 °C 31,3 °C
03.07.2015 12:59 23,5 °C 31,4 °C 58 % 46 % 1022,7 hPa 0,0 l/m² 4,7 km/h (1 Bft) O-SO 112 ° 18,4 °C 31,4 °C
03.07.2015 13:01 23,5 °C 31,6 °C 58 % 45 % 1022,8 hPa 0,0 l/m² 8,3 km/h (2 Bft) O-NO 67 ° 18,2 °C 31,5 °C
03.07.2015 13:03 23,5 °C 31,8 °C 58 % 46 % 1022,6 hPa 0,0 l/m² 15,5 km/h (3 Bft) O-SO 112 ° 18,7 °C 31,5 °C
03.07.2015 13:05 23,5 °C 32,1 °C 58 % 46 % 1022,8 hPa 0,0 l/m² 9,0 km/h (2 Bft) NO 45 ° 19,0 °C 32,0 °C
03.07.2015 13:07 23,5 °C 31,9 °C 58 % 44 % 1022,8 hPa 0,0 l/m² 0,0 km/h (0 Bft) NW 315 ° 18,1 °C 31,9 °C
03.07.2015 13:09 23,5 °C 31,7 °C 58 % 45 % 1022,7 hPa 0,0 l/m² 6,1 km/h (2 Bft) N-NO 22 ° 18,3 °C 31,7 °C
03.07.2015 13:11 23,5 °C 31,4 °C 58 % 46 % 1022,7 hPa 0,0 l/m² 4,0 km/h (1 Bft) N-NO 22 ° 18,4 °C 31,4 °C
03.07.2015 13:13 23,5 °C 31,4 °C 58 % 46 % 1022,7 hPa 0,0 l/m² 6,1 km/h (2 Bft) O-SO 112 ° 18,4 °C 31,4 °C
03.07.2015 13:15 23,5 °C 31,6 °C 58 % 46 % 1022,7 hPa 0,0 l/m² 9,7 km/h (2 Bft) O-SO 112 ° 18,5 °C 31,5 °C
03.07.2015 13:17 23,5 °C 31,8 °C 58 % 46 % 1022,6 hPa 0,0 l/m² 6,5 km/h (2 Bft) O-SO 112 ° 18,7 °C 31,8 °C
03.07.2015 13:19 23,6 °C 31,9 °C 58 % 46 % 1022,6 hPa 0,0 l/m² 6,5 km/h (2 Bft) O 90 ° 18,8 °C 31,9 °C
03.07.2015 13:21 23,5 °C 31,9 °C 58 % 45 % 1022,4 hPa 0,0 l/m² 5,4 km/h (2 Bft) O-SO 112 ° 18,5 °C 31,9 °C
03.07.2015 13:23 23,6 °C 32,2 °C 58 % 45 % 1022,3 hPa 0,0 l/m² 12,2 km/h (2 Bft) O-SO 112 ° 18,7 °C 32,1 °C
03.07.2015 13:25 23,5 °C 32,4 °C 58 % 44 % 1022,3 hPa 0,0 l/m² 8,3 km/h (2 Bft) O 90 ° 18,5 °C 32,4 °C
03.07.2015 13:27 23,6 °C 32,4 °C 58 % 44 % 1022,3 hPa 0,0 l/m² 8,3 km/h (2 Bft) O 90 ° 18,5 °C 32,4 °C
03.07.2015 13:29 23,6 °C 32,7 °C 58 % 44 % 1022,1 hPa 0,0 l/m² 5,0 km/h (1 Bft) O-NO 67 ° 18,8 °C 32,7 °C
03.07.2015 13:31 23,6 °C 32,9 °C 58 % 44 % 1022,1 hPa 0,0 l/m² 5,8 km/h (2 Bft) O-SO 112 ° 19,0 °C 32,9 °C
03.07.2015 13:33 23,6 °C 32,9 °C 58 % 42 % 1022,1 hPa 0,0 l/m² 11,9 km/h (2 Bft) O-SO 112 ° 18,3 °C 32,9 °C
03.07.2015 13:35 23,6 °C 33,1 °C 58 % 43 % 1021,9 hPa 0,0 l/m² 14,0 km/h (3 Bft) O 90 ° 18,8 °C 33,1 °C
03.07.2015 13:37 23,6 °C 33,2 °C 58 % 43 % 1021,9 hPa 0,0 l/m² 11,5 km/h (2 Bft) SO 135 ° 18,9 °C 33,2 °C
03.07.2015 13:39 23,6 °C 33,3 °C 58 % 43 % 1021,9 hPa 0,0 l/m² 16,6 km/h (3 Bft) O-NO 67 ° 19,0 °C 33,3 °C
03.07.2015 13:41 23,6 °C 33,4 °C 58 % 43 % 1021,9 hPa 0,0 l/m² 17,6 km/h (3 Bft) SO 135 ° 19,1 °C 33,4 °C
03.07.2015 13:43 23,6 °C 33,6 °C 58 % 42 % 1022,0 hPa 0,0 l/m² 8,3 km/h (2 Bft) SO 135 ° 18,9 °C 33,6 °C
03.07.2015 13:45 23,6 °C 33,8 °C 58 % 43 % 1021,9 hPa 0,0 l/m² 10,1 km/h (2 Bft) O-SO 112 ° 19,4 °C 33,8 °C
03.07.2015 13:47 23,6 °C 33,9 °C 58 % 42 % 1021,9 hPa 0,0 l/m² 7,6 km/h (2 Bft) O-NO 67 ° 19,1 °C 33,9 °C
03.07.2015 13:49 23,6 °C 34,1 °C 58 % 42 % 1021,9 hPa 0,0 l/m² 10,1 km/h (2 Bft) S-SO 157 ° 19,3 °C 34,1 °C
03.07.2015 13:51 23,6 °C 34,1 °C 58 % 41 % 1021,9 hPa 0,0 l/m² 7,9 km/h (2 Bft) O-NO 67 ° 18,9 °C 34,1 °C
03.07.2015 13:53 23,6 °C 34,2 °C 58 % 41 % 1022,0 hPa 0,0 l/m² 14,8 km/h (3 Bft) O-SO 112 ° 19,0 °C 34,2 °C
03.07.2015 13:55 23,6 °C 34,2 °C 58 % 40 % 1022,0 hPa 0,0 l/m² 14,8 km/h (3 Bft) O-SO 112 ° 18,6 °C 34,2 °C
03.07.2015 13:57 23,6 °C 34,2 °C 58 % 40 % 1022,0 hPa 0,0 l/m² 14,8 km/h (3 Bft) O-SO 112 ° 18,6 °C 34,2 °C
03.07.2015 13:59 23,6 °C 34,1 °C 58 % 40 % 1022,0 hPa 0,0 l/m² 7,2 km/h (2 Bft) SO 135 ° 18,5 °C 34,1 °C
03.07.2015 14:01 23,6 °C 34,1 °C 58 % 40 % 1022,0 hPa 0,0 l/m² 4,7 km/h (1 Bft) O-SO 112 ° 18,5 °C 34,1 °C
03.07.2015 14:03 23,6 °C 34,0 °C 58 % 40 % 1021,9 hPa 0,0 l/m² 13,3 km/h (3 Bft) O-SO 112 ° 18,5 °C 34,0 °C
03.07.2015 14:05 23,6 °C 34,1 °C 58 % 41 % 1022,0 hPa 0,0 l/m² 11,9 km/h (2 Bft) O 90 ° 18,9 °C 34,1 °C
03.07.2015 14:07 23,6 °C 34,3 °C 58 % 41 % 1021,9 hPa 0,0 l/m² 8,6 km/h (2 Bft) O-NO 67 ° 19,1 °C 34,3 °C
03.07.2015 14:09 23,6 °C 34,4 °C 58 % 40 % 1021,9 hPa 0,0 l/m² 6,8 km/h (2 Bft) O 90 ° 18,8 °C 34,4 °C
03.07.2015 14:11 23,6 °C 34,5 °C 58 % 40 % 1022,0 hPa 0,0 l/m² 7,9 km/h (2 Bft) SO 135 ° 18,9 °C 34,5 °C
03.07.2015 14:13 23,6 °C 34,7 °C 58 % 40 % 1022,0 hPa 0,0 l/m² 10,1 km/h (2 Bft) SO 135 ° 19,1 °C 34,7 °C
03.07.2015 14:15 23,6 °C 34,8 °C 58 % 39 % 1022,1 hPa 0,0 l/m² 7,9 km/h (2 Bft) SO 135 ° 18,8 °C 34,8 °C
03.07.2015 14:17 23,6 °C 34,8 °C 58 % 38 % 1022,0 hPa 0,0 l/m² 6,1 km/h (2 Bft) SO 135 ° 18,3 °C 34,8 °C
03.07.2015 14:19 23,6 °C 34,8 °C 58 % 38 % 1021,9 hPa 0,0 l/m² 5,0 km/h (1 Bft) SO 135 ° 18,3 °C 34,8 °C
03.07.2015 14:21 23,6 °C 35,0 °C 58 % 38 % 1021,9 hPa 0,0 l/m² 5,0 km/h (1 Bft) SW 225 ° 18,5 °C 35,0 °C
03.07.2015 14:23 23,6 °C 35,1 °C 58 % 39 % 1022,0 hPa 0,0 l/m² 6,1 km/h (2 Bft) S-SO 157 ° 19,0 °C 35,1 °C
03.07.2015 14:25 23,6 °C 35,2 °C 58 % 39 % 1022,0 hPa 0,0 l/m² 7,2 km/h (2 Bft) O 90 ° 19,1 °C 35,2 °C
03.07.2015 14:27 23,6 °C 35,3 °C 58 % 38 % 1022,0 hPa 0,0 l/m² 7,2 km/h (2 Bft) O 90 ° 18,8 °C 35,3 °C
03.07.2015 14:29 23,6 °C 35,3 °C 58 % 38 % 1021,9 hPa 0,0 l/m² 8,3 km/h (2 Bft) SO 135 ° 18,8 °C 35,3 °C
03.07.2015 14:31 23,6 °C 35,2 °C 58 % 38 % 1022,0 hPa 0,0 l/m² 0,0 km/h (0 Bft) O-SO 112 ° 18,7 °C 35,2 °C
03.07.2015 14:33 23,6 °C 35,2 °C 58 % 38 % 1022,0 hPa 0,0 l/m² 4,7 km/h (1 Bft) SW 225 ° 18,7 °C 35,2 °C
03.07.2015 14:35 23,6 °C 35,3 °C 58 % 38 % 1022,0 hPa 0,0 l/m² 6,5 km/h (2 Bft) O-SO 112 ° 18,8 °C 35,3 °C
03.07.2015 14:37 23,6 °C 35,3 °C 58 % 38 % 1022,0 hPa 0,0 l/m² 9,4 km/h (2 Bft) SO 135 ° 18,8 °C 35,3 °C
03.07.2015 14:39 23,6 °C 35,4 °C 58 % 37 % 1022,0 hPa 0,0 l/m² 3,6 km/h (1 Bft) O-NO 67 ° 18,4 °C 35,4 °C
03.07.2015 14:41 23,6 °C 35,3 °C 58 % 37 % 1021,9 hPa 0,0 l/m² 2,2 km/h (1 Bft) N-NO 22 ° 18,4 °C 35,3 °C
03.07.2015 14:43 23,6 °C 35,2 °C 58 % 38 % 1022,0 hPa 0,0 l/m² 6,1 km/h (2 Bft) S-SO 157 ° 18,7 °C 35,2 °C
03.07.2015 14:45 23,6 °C 35,2 °C 58 % 38 % 1021,9 hPa 0,0 l/m² 7,6 km/h (2 Bft) O 90 ° 18,7 °C 35,2 °C
03.07.2015 14:47 23,6 °C 35,3 °C 58 % 38 % 1022,0 hPa 0,0 l/m² 8,6 km/h (2 Bft) O-SO 112 ° 18,8 °C 35,3 °C
03.07.2015 14:49 23,6 °C 35,4 °C 58 % 37 % 1022,0 hPa 0,0 l/m² 5,0 km/h (1 Bft) O-SO 112 ° 18,4 °C 35,4 °C
03.07.2015 14:51 23,6 °C 35,4 °C 58 % 37 % 1022,0 hPa 0,0 l/m² 4,0 km/h (1 Bft) S-SO 157 ° 18,4 °C 35,4 °C
03.07.2015 14:53 23,6 °C 35,5 °C 58 % 35 % 1022,0 hPa 0,0 l/m² 4,0 km/h (1 Bft) S 180 ° 17,6 °C 35,5 °C
03.07.2015 14:55 23,6 °C 35,7 °C 58 % 37 % 1022,0 hPa 0,0 l/m² 4,0 km/h (1 Bft) O-SO 112 ° 18,7 °C 35,7 °C
03.07.2015 14:57 23,6 °C 35,6 °C 58 % 37 % 1021,9 hPa 0,0 l/m² 5,8 km/h (2 Bft) NO 45 ° 18,6 °C 35,6 °C
03.07.2015 14:59 23,6 °C 35,6 °C 58 % 37 % 1021,9 hPa 0,0 l/m² 5,8 km/h (2 Bft) NO 45 ° 18,6 °C 35,6 °C
03.07.2015 15:01 23,6 °C 35,5 °C 58 % 37 % 1022,0 hPa 0,0 l/m² 6,1 km/h (2 Bft) O-SO 112 ° 18,5 °C 35,5 °C
03.07.2015 15:03 23,6 °C 35,5 °C 58 % 37 % 1022,0 hPa 0,0 l/m² 11,5 km/h (2 Bft) O-SO 112 ° 18,5 °C 35,5 °C
03.07.2015 15:05 23,7 °C 35,3 °C 58 % 37 % 1021,9 hPa 0,0 l/m² 0,0 km/h (0 Bft) O-SO 112 ° 18,4 °C 35,3 °C
03.07.2015 15:07 23,7 °C 35,1 °C 58 % 37 % 1021,9 hPa 0,0 l/m² 1,8 km/h (1 Bft) O-SO 112 ° 18,2 °C 35,1 °C
03.07.2015 15:09 23,7 °C 34,9 °C 58 % 38 % 1021,9 hPa 0,0 l/m² 2,5 km/h (1 Bft) O-SO 112 ° 18,4 °C 34,9 °C
03.07.2015 15:11 23,7 °C 34,8 °C 58 % 38 % 1021,8 hPa 0,0 l/m² 0,0 km/h (0 Bft) O-SO 112 ° 18,3 °C 34,8 °C
03.07.2015 15:13 23,7 °C 34,6 °C 58 % 38 % 1021,8 hPa 0,0 l/m² 2,5 km/h (1 Bft) SO 135 ° 18,2 °C 34,6 °C
03.07.2015 15:15 23,6 °C 34,6 °C 58 % 38 % 1021,8 hPa 0,0 l/m² 0,0 km/h (0 Bft) SO 135 ° 18,2 °C 34,6 °C
03.07.2015 15:17 23,7 °C 34,6 °C 58 % 38 % 1021,8 hPa 0,0 l/m² 0,0 km/h (0 Bft) SO 135 ° 18,2 °C 34,6 °C
03.07.2015 15:19 23,7 °C 34,6 °C 58 % 39 % 1021,8 hPa 0,0 l/m² 1,4 km/h (1 Bft) S-SO 157 ° 18,6 °C 34,6 °C
03.07.2015 15:21 23,6 °C 34,7 °C 58 % 39 % 1021,8 hPa 0,0 l/m² 0,0 km/h (0 Bft) S-SO 157 ° 18,7 °C 34,7 °C
03.07.2015 15:23 23,7 °C 34,7 °C 58 % 39 % 1021,8 hPa 0,0 l/m² 3,6 km/h (1 Bft) O-SO 112 ° 18,7 °C 34,7 °C
03.07.2015 15:25 23,7 °C 34,7 °C 58 % 38 % 1021,8 hPa 0,0 l/m² 2,2 km/h (1 Bft) O-SO 112 ° 18,3 °C 34,7 °C
03.07.2015 15:27 23,7 °C 34,8 °C 58 % 38 % 1021,9 hPa 0,0 l/m² 2,5 km/h (1 Bft) O-SO 112 ° 18,3 °C 34,8 °C
03.07.2015 15:29 23,7 °C 34,8 °C 58 % 38 % 1021,8 hPa 0,0 l/m² 2,5 km/h (1 Bft) O-SO 112 ° 18,3 °C 34,8 °C
03.07.2015 15:31 23,7 °C 34,8 °C 58 % 38 % 1021,7 hPa 0,0 l/m² 2,5 km/h (1 Bft) O-SO 112 ° 18,3 °C 34,8 °C
03.07.2015 15:33 23,7 °C 34,8 °C 58 % 38 % 1021,8 hPa 0,0 l/m² 0,0 km/h (0 Bft) O-SO 112 ° 18,3 °C 34,8 °C
03.07.2015 15:35 23,7 °C 34,7 °C 58 % 37 % 1021,9 hPa 0,0 l/m² 0,0 km/h (0 Bft) O-SO 112 ° 17,8 °C 34,7 °C
03.07.2015 15:37 23,7 °C 34,7 °C 58 % 38 % 1021,8 hPa 0,0 l/m² 1,4 km/h (1 Bft) O-SO 112 ° 18,3 °C 34,7 °C
03.07.2015 15:39 23,7 °C 34,8 °C 58 % 38 % 1021,9 hPa 0,0 l/m² 2,2 km/h (1 Bft) SO 135 ° 18,3 °C 34,8 °C
03.07.2015 15:41 23,7 °C 34,8 °C 58 % 38 % 1021,7 hPa 0,0 l/m² 2,5 km/h (1 Bft) SO 135 ° 18,3 °C 34,8 °C
03.07.2015 15:43 23,7 °C 34,8 °C 58 % 38 % 1021,9 hPa 0,0 l/m² 3,2 km/h (1 Bft) O-NO 67 ° 18,3 °C 34,8 °C
03.07.2015 15:45 23,7 °C 34,8 °C 58 % 38 % 1021,9 hPa 0,0 l/m² 0,0 km/h (0 Bft) O 90 ° 18,3 °C 34,8 °C
03.07.2015 15:47 23,7 °C 34,7 °C 58 % 38 % 1021,8 hPa 0,0 l/m² 0,0 km/h (0 Bft) NO 45 ° 18,3 °C 34,7 °C
03.07.2015 15:49 23,7 °C 34,5 °C 58 % 38 % 1021,8 hPa 0,0 l/m² 0,0 km/h (0 Bft) NO 45 ° 18,1 °C 34,5 °C
03.07.2015 15:51 23,7 °C 34,6 °C 58 % 38 % 1021,8 hPa 0,0 l/m² 3,2 km/h (1 Bft) N 360 ° 18,2 °C 34,6 °C
03.07.2015 15:53 23,7 °C 34,6 °C 58 % 38 % 1021,8 hPa 0,0 l/m² 5,0 km/h (1 Bft) N 360 ° 18,2 °C 34,6 °C
03.07.2015 15:55 23,7 °C 34,7 °C 58 % 38 % 1021,8 hPa 0,0 l/m² 2,2 km/h (1 Bft) N-NO 22 ° 18,3 °C 34,7 °C
03.07.2015 15:57 23,7 °C 34,8 °C 58 % 38 % 1021,8 hPa 0,0 l/m² 0,0 km/h (0 Bft) N-NO 22 ° 18,3 °C 34,8 °C
03.07.2015 15:59 23,7 °C 34,9 °C 58 % 38 % 1021,8 hPa 0,0 l/m² 4,3 km/h (1 Bft) S-SO 157 ° 18,4 °C 34,9 °C
03.07.2015 16:01 23,7 °C 34,9 °C 58 % 38 % 1021,9 hPa 0,0 l/m² 4,3 km/h (1 Bft) S-SO 157 ° 18,4 °C 34,9 °C
03.07.2015 16:03 23,7 °C 34,9 °C 58 % 38 % 1021,8 hPa 0,0 l/m² 4,0 km/h (1 Bft) S-SW 202 ° 18,4 °C 34,9 °C
03.07.2015 16:05 23,7 °C 35,1 °C 58 % 38 % 1021,7 hPa 0,0 l/m² 4,7 km/h (1 Bft) S 180 ° 18,6 °C 35,1 °C
03.07.2015 16:07 23,7 °C 35,2 °C 58 % 38 % 1021,7 hPa 0,0 l/m² 2,2 km/h (1 Bft) SW 225 ° 18,7 °C 35,2 °C
03.07.2015 16:09 23,7 °C 35,2 °C 58 % 37 % 1021,7 hPa 0,0 l/m² 0,0 km/h (0 Bft) S 180 ° 18,3 °C 35,2 °C
03.07.2015 16:11 23,7 °C 35,1 °C 58 % 38 % 1021,6 hPa 0,0 l/m² 0,0 km/h (0 Bft) S 180 ° 18,6 °C 35,1 °C
03.07.2015 16:13 23,7 °C 35,2 °C 58 % 37 % 1021,7 hPa 0,0 l/m² 4,3 km/h (1 Bft) S 180 ° 18,3 °C 35,2 °C
03.07.2015 16:15 23,7 °C 35,3 °C 58 % 37 % 1021,6 hPa 0,0 l/m² 0,0 km/h (0 Bft) W-SW 247 ° 18,4 °C 35,3 °C
03.07.2015 16:17 23,7 °C 35,4 °C 58 % 37 % 1021,7 hPa 0,0 l/m² 0,0 km/h (0 Bft) NW 315 ° 18,4 °C 35,4 °C
03.07.2015 16:19 23,7 °C 35,6 °C 58 % 37 % 1021,7 hPa 0,0 l/m² 4,0 km/h (1 Bft) S-SO 157 ° 18,6 °C 35,6 °C
03.07.2015 16:21 23,8 °C 35,9 °C 58 % 36 % 1021,7 hPa 0,0 l/m² 4,0 km/h (1 Bft) SO 135 ° 18,4 °C 35,9 °C
03.07.2015 16:23 23,7 °C 36,1 °C 58 % 34 % 1021,7 hPa 0,0 l/m² 2,9 km/h (1 Bft) SO 135 ° 17,7 °C 36,1 °C
03.07.2015 16:25 23,7 °C 36,3 °C 58 % 35 % 1021,7 hPa 0,0 l/m² 2,5 km/h (1 Bft) SO 135 ° 18,3 °C 36,3 °C
03.07.2015 16:27 23,7 °C 36,3 °C 58 % 34 % 1021,7 hPa 0,0 l/m² 2,9 km/h (1 Bft) SO 135 ° 17,9 °C 36,3 °C
03.07.2015 16:29 23,7 °C 36,4 °C 58 % 35 % 1021,6 hPa 0,0 l/m² 4,7 km/h (1 Bft) SO 135 ° 18,4 °C 36,4 °C
03.07.2015 16:31 23,8 °C 36,4 °C 58 % 35 % 1021,6 hPa 0,0 l/m² 4,7 km/h (1 Bft) SO 135 ° 18,4 °C 36,4 °C
03.07.2015 16:33 23,8 °C 36,6 °C 58 % 34 % 1021,6 hPa 0,0 l/m² 5,0 km/h (1 Bft) SO 135 ° 18,1 °C 36,6 °C
03.07.2015 16:35 23,8 °C 36,7 °C 58 % 34 % 1021,6 hPa 0,0 l/m² 0,0 km/h (0 Bft) SO 135 ° 18,2 °C 36,7 °C
03.07.2015 16:37 23,8 °C 36,8 °C 58 % 34 % 1021,6 hPa 0,0 l/m² 3,6 km/h (1 Bft) SO 135 ° 18,3 °C 36,8 °C
03.07.2015 16:39 23,8 °C 36,8 °C 58 % 34 % 1021,6 hPa 0,0 l/m² 2,2 km/h (1 Bft) SO 135 ° 18,3 °C 36,8 °C
03.07.2015 16:41 23,8 °C 36,8 °C 58 % 34 % 1021,6 hPa 0,0 l/m² 2,5 km/h (1 Bft) SO 135 ° 18,3 °C 36,8 °C
03.07.2015 16:43 23,8 °C 36,6 °C 58 % 34 % 1021,6 hPa 0,0 l/m² 0,0 km/h (0 Bft) SO 135 ° 18,1 °C 36,6 °C
03.07.2015 16:45 23,8 °C 36,6 °C 58 % 34 % 1021,6 hPa 0,0 l/m² 5,8 km/h (2 Bft) S 180 ° 18,1 °C 36,6 °C
03.07.2015 16:47 23,8 °C 36,6 °C 58 % 36 % 1021,6 hPa 0,0 l/m² 6,8 km/h (2 Bft) W-SW 247 ° 19,1 °C 36,6 °C
03.07.2015 16:49 23,8 °C 36,9 °C 58 % 35 % 1021,6 hPa 0,0 l/m² 6,5 km/h (2 Bft) S-SW 202 ° 18,9 °C 36,9 °C
03.07.2015 16:51 23,8 °C 36,9 °C 58 % 34 % 1021,6 hPa 0,0 l/m² 7,6 km/h (2 Bft) SW 225 ° 18,4 °C 36,9 °C
03.07.2015 16:53 23,8 °C 37,2 °C 58 % 34 % 1021,6 hPa 0,0 l/m² 6,1 km/h (2 Bft) S 180 ° 18,7 °C 37,2 °C
03.07.2015 16:55 23,8 °C 37,3 °C 58 % 34 % 1021,6 hPa 0,0 l/m² 4,7 km/h (1 Bft) W-SW 247 ° 18,8 °C 37,3 °C
03.07.2015 16:57 23,8 °C 37,3 °C 58 % 33 % 1021,5 hPa 0,0 l/m² 4,7 km/h (1 Bft) W-SW 247 ° 18,3 °C 37,3 °C
03.07.2015 16:59 23,8 °C 37,3 °C 58 % 33 % 1021,6 hPa 0,0 l/m² 2,5 km/h (1 Bft) S-SW 202 ° 18,3 °C 37,3 °C
03.07.2015 17:01 23,8 °C 37,3 °C 58 % 33 % 1021,5 hPa 0,0 l/m² 2,5 km/h (1 Bft) S-SW 202 ° 18,3 °C 37,3 °C
03.07.2015 17:03 23,8 °C 37,2 °C 58 % 33 % 1021,6 hPa 0,0 l/m² 0,0 km/h (0 Bft) W-SW 247 ° 18,2 °C 37,2 °C
03.07.2015 17:05 23,8 °C 37,1 °C 58 % 33 % 1021,5 hPa 0,0 l/m² 0,0 km/h (0 Bft) W 270 ° 18,1 °C 37,1 °C
03.07.2015 17:07 23,8 °C 37,2 °C 58 % 33 % 1021,5 hPa 0,0 l/m² 3,2 km/h (1 Bft) S-SW 202 ° 18,2 °C 37,2 °C
03.07.2015 17:09 23,8 °C 37,2 °C 58 % 33 % 1021,5 hPa 0,0 l/m² 0,0 km/h (0 Bft) S-SO 157 ° 18,2 °C 37,2 °C
03.07.2015 17:11 23,8 °C 37,1 °C 58 % 33 % 1021,5 hPa 0,0 l/m² 0,0 km/h (0 Bft) NO 45 ° 18,1 °C 37,1 °C
03.07.2015 17:13 23,8 °C 37,0 °C 58 % 34 % 1021,5 hPa 0,0 l/m² 3,6 km/h (1 Bft) N-NO 22 ° 18,5 °C 37,0 °C
03.07.2015 17:15 23,8 °C 37,0 °C 58 % 33 % 1021,5 hPa 0,0 l/m² 0,0 km/h (0 Bft) N-NO 22 ° 18,0 °C 37,0 °C
03.07.2015 17:17 23,8 °C 37,0 °C 58 % 33 % 1021,5 hPa 0,0 l/m² 0,0 km/h (0 Bft) N-NO 22 ° 18,0 °C 37,0 °C
03.07.2015 17:19 23,8 °C 36,9 °C 58 % 34 % 1021,5 hPa 0,0 l/m² 3,2 km/h (1 Bft) NW 315 ° 18,4 °C 36,9 °C
03.07.2015 17:21 23,8 °C 37,0 °C 58 % 34 % 1021,5 hPa 0,0 l/m² 4,3 km/h (1 Bft) N-NW 337 ° 18,5 °C 37,0 °C
03.07.2015 17:23 23,8 °C 36,9 °C 58 % 34 % 1021,5 hPa 0,0 l/m² 4,3 km/h (1 Bft) NW 315 ° 18,4 °C 36,9 °C
03.07.2015 17:25 23,8 °C 36,8 °C 58 % 34 % 1021,5 hPa 0,0 l/m² 5,8 km/h (2 Bft) N-NW 337 ° 18,3 °C 36,8 °C
03.07.2015 17:27 23,8 °C 36,6 °C 58 % 34 % 1021,5 hPa 0,0 l/m² 10,1 km/h (2 Bft) N 360 ° 18,1 °C 36,6 °C
03.07.2015 17:29 23,8 °C 36,6 °C 58 % 34 % 1021,4 hPa 0,0 l/m² 7,6 km/h (2 Bft) N 360 ° 18,1 °C 36,6 °C
03.07.2015 17:31 23,8 °C 36,6 °C 58 % 34 % 1021,4 hPa 0,0 l/m² 7,6 km/h (2 Bft) N 360 ° 18,1 °C 36,6 °C
03.07.2015 17:33 23,8 °C 36,4 °C 58 % 34 % 1021,4 hPa 0,0 l/m² 4,7 km/h (1 Bft) N-NO 22 ° 18,0 °C 36,4 °C
03.07.2015 17:35 23,8 °C 36,4 °C 58 % 34 % 1021,4 hPa 0,0 l/m² 3,2 km/h (1 Bft) NO 45 ° 18,0 °C 36,4 °C
03.07.2015 17:37 23,8 °C 36,4 °C 58 % 34 % 1021,3 hPa 0,0 l/m² 4,3 km/h (1 Bft) N 360 ° 18,0 °C 36,4 °C
03.07.2015 17:39 23,8 °C 36,4 °C 58 % 34 % 1021,4 hPa 0,0 l/m² 0,0 km/h (0 Bft) S-SO 157 ° 18,0 °C 36,4 °C
03.07.2015 17:41 23,8 °C 36,4 °C 58 % 34 % 1021,3 hPa 0,0 l/m² 3,6 km/h (1 Bft) SO 135 ° 18,0 °C 36,4 °C
03.07.2015 17:43 23,8 °C 36,5 °C 58 % 34 % 1021,3 hPa 0,0 l/m² 0,0 km/h (0 Bft) SO 135 ° 18,1 °C 36,5 °C
03.07.2015 17:45 23,8 °C 36,6 °C 58 % 34 % 1021,4 hPa 0,0 l/m² 8,6 km/h (2 Bft) N 360 ° 18,1 °C 36,6 °C
03.07.2015 17:47 23,8 °C 36,6 °C 58 % 34 % 1021,3 hPa 0,0 l/m² 9,4 km/h (2 Bft) NO 45 ° 18,1 °C 36,6 °C
03.07.2015 17:49 23,8 °C 36,4 °C 58 % 34 % 1021,3 hPa 0,0 l/m² 2,5 km/h (1 Bft) N-NO 22 ° 18,0 °C 36,4 °C
03.07.2015 17:51 23,8 °C 36,4 °C 58 % 34 % 1021,4 hPa 0,0 l/m² 3,6 km/h (1 Bft) NO 45 ° 18,0 °C 36,4 °C
03.07.2015 17:53 23,8 °C 36,4 °C 58 % 34 % 1021,2 hPa 0,0 l/m² 2,5 km/h (1 Bft) NO 45 ° 18,0 °C 36,4 °C
03.07.2015 17:55 23,8 °C 36,4 °C 58 % 34 % 1021,2 hPa 0,0 l/m² 7,6 km/h (2 Bft) NO 45 ° 18,0 °C 36,4 °C
03.07.2015 17:57 23,8 °C 36,4 °C 58 % 34 % 1021,2 hPa 0,0 l/m² 7,6 km/h (2 Bft) N 360 ° 18,0 °C 36,4 °C
03.07.2015 17:59 23,8 °C 36,4 °C 58 % 34 % 1021,2 hPa 0,0 l/m² 0,0 km/h (0 Bft) NO 45 ° 18,0 °C 36,4 °C
03.07.2015 18:01 23,8 °C 36,4 °C 58 % 34 % 1021,2 hPa 0,0 l/m² 0,0 km/h (0 Bft) NO 45 ° 18,0 °C 36,4 °C
03.07.2015 18:03 23,8 °C 36,3 °C 58 % 34 % 1021,1 hPa 0,0 l/m² 4,0 km/h (1 Bft) NO 45 ° 17,9 °C 36,3 °C
03.07.2015 18:05 23,8 °C 36,2 °C 58 % 34 % 1021,1 hPa 0,0 l/m² 6,5 km/h (2 Bft) N 360 ° 17,8 °C 36,2 °C
03.07.2015 18:07 23,8 °C 36,2 °C 58 % 34 % 1021,2 hPa 0,0 l/m² 3,2 km/h (1 Bft) N-NO 22 ° 17,8 °C 36,2 °C
03.07.2015 18:09 23,8 °C 36,2 °C 58 % 34 % 1021,1 hPa 0,0 l/m² 0,0 km/h (0 Bft) N-NW 337 ° 17,8 °C 36,2 °C
03.07.2015 18:11 23,8 °C 36,2 °C 58 % 34 % 1020,9 hPa 0,0 l/m² 4,0 km/h (1 Bft) N 360 ° 17,8 °C 36,2 °C
03.07.2015 18:13 23,8 °C 36,3 °C 58 % 34 % 1021,1 hPa 0,0 l/m² 7,2 km/h (2 Bft) W-NW 292 ° 17,9 °C 36,3 °C
03.07.2015 18:15 23,8 °C 36,4 °C 58 % 33 % 1021,0 hPa 0,0 l/m² 2,5 km/h (1 Bft) W-NW 292 ° 17,5 °C 36,4 °C
03.07.2015 18:17 23,8 °C 36,4 °C 58 % 33 % 1021,1 hPa 0,0 l/m² 6,5 km/h (2 Bft) W-NW 292 ° 17,5 °C 36,4 °C
03.07.2015 18:19 23,8 °C 36,4 °C 58 % 33 % 1021,0 hPa 0,0 l/m² 4,3 km/h (1 Bft) NW 315 ° 17,5 °C 36,4 °C
03.07.2015 18:21 23,8 °C 36,4 °C 58 % 34 % 1021,0 hPa 0,0 l/m² 3,6 km/h (1 Bft) N-NO 22 ° 18,0 °C 36,4 °C
03.07.2015 18:23 23,8 °C 36,3 °C 58 % 33 % 1021,0 hPa 0,0 l/m² 6,1 km/h (2 Bft) N-NO 22 ° 17,4 °C 36,3 °C
03.07.2015 18:25 23,8 °C 36,2 °C 58 % 33 % 1020,9 hPa 0,0 l/m² 10,8 km/h (2 Bft) N 360 ° 17,3 °C 36,2 °C
03.07.2015 18:27 23,8 °C 36,1 °C 58 % 34 % 1020,9 hPa 0,0 l/m² 7,9 km/h (2 Bft) N-NW 337 ° 17,7 °C 36,1 °C
03.07.2015 18:29 23,8 °C 36,1 °C 58 % 33 % 1021,1 hPa 0,0 l/m² 6,8 km/h (2 Bft) NW 315 ° 17,2 °C 36,1 °C
03.07.2015 18:31 23,8 °C 36,1 °C 58 % 33 % 1021,0 hPa 0,0 l/m² 6,8 km/h (2 Bft) NW 315 ° 17,2 °C 36,1 °C
03.07.2015 18:33 23,9 °C 36,1 °C 58 % 33 % 1021,0 hPa 0,0 l/m² 6,1 km/h (2 Bft) N 360 ° 17,2 °C 36,1 °C
03.07.2015 18:35 23,8 °C 36,0 °C 58 % 33 % 1021,0 hPa 0,0 l/m² 6,5 km/h (2 Bft) NW 315 ° 17,1 °C 36,0 °C
03.07.2015 18:37 23,8 °C 35,9 °C 58 % 33 % 1021,2 hPa 0,0 l/m² 4,3 km/h (1 Bft) N-NW 337 ° 17,1 °C 35,9 °C
03.07.2015 18:39 23,8 °C 35,9 °C 58 % 34 % 1021,2 hPa 0,0 l/m² 4,7 km/h (1 Bft) NW 315 ° 17,5 °C 35,9 °C
03.07.2015 18:41 23,8 °C 35,9 °C 58 % 34 % 1021,2 hPa 0,0 l/m² 0,0 km/h (0 Bft) NO 45 ° 17,5 °C 35,9 °C
03.07.2015 18:43 23,8 °C 35,9 °C 58 % 34 % 1021,2 hPa 0,0 l/m² 6,8 km/h (2 Bft) N 360 ° 17,5 °C 35,9 °C
03.07.2015 18:45 23,9 °C 35,9 °C 58 % 34 % 1021,2 hPa 0,0 l/m² 7,6 km/h (2 Bft) N-NO 22 ° 17,5 °C 35,9 °C
03.07.2015 18:47 23,9 °C 35,7 °C 58 % 34 % 1021,1 hPa 0,0 l/m² 8,3 km/h (2 Bft) N 360 ° 17,4 °C 35,7 °C
03.07.2015 18:49 23,9 °C 35,6 °C 58 % 35 % 1021,3 hPa 0,0 l/m² 0,0 km/h (0 Bft) N-NO 22 ° 17,7 °C 35,6 °C
03.07.2015 18:51 23,9 °C 35,4 °C 58 % 35 % 1021,2 hPa 0,0 l/m² 13,7 km/h (3 Bft) NO 45 ° 17,6 °C 35,4 °C
03.07.2015 18:53 23,8 °C 35,4 °C 58 % 36 % 1021,2 hPa 0,0 l/m² 5,0 km/h (1 Bft) N-NO 22 ° 18,0 °C 35,4 °C
03.07.2015 18:55 23,9 °C 35,3 °C 58 % 37 % 1021,2 hPa 0,0 l/m² 2,2 km/h (1 Bft) N-NO 22 ° 18,4 °C 35,3 °C
03.07.2015 18:57 23,9 °C 35,1 °C 58 % 37 % 1021,2 hPa 0,0 l/m² 8,3 km/h (2 Bft) NO 45 ° 18,2 °C 35,1 °C
03.07.2015 18:59 23,9 °C 34,9 °C 58 % 37 % 1021,3 hPa 0,0 l/m² 5,8 km/h (2 Bft) N-NO 22 ° 18,0 °C 34,9 °C
03.07.2015 19:01 23,9 °C 34,9 °C 58 % 37 % 1021,4 hPa 0,0 l/m² 5,8 km/h (2 Bft) N-NO 22 ° 18,0 °C 34,9 °C
03.07.2015 19:03 23,9 °C 34,9 °C 58 % 37 % 1021,2 hPa 0,0 l/m² 5,8 km/h (2 Bft) N-NO 22 ° 18,0 °C 34,9 °C
03.07.2015 19:05 23,9 °C 34,8 °C 58 % 38 % 1021,2 hPa 0,0 l/m² 6,1 km/h (2 Bft) N-NO 22 ° 18,3 °C 34,8 °C
03.07.2015 19:07 23,9 °C 34,7 °C 58 % 38 % 1021,2 hPa 0,0 l/m² 6,5 km/h (2 Bft) NO 45 ° 18,3 °C 34,7 °C
03.07.2015 19:09 23,9 °C 34,6 °C 58 % 38 % 1021,2 hPa 0,0 l/m² 6,5 km/h (2 Bft) N 360 ° 18,2 °C 34,6 °C
03.07.2015 19:11 23,9 °C 34,6 °C 58 % 38 % 1021,2 hPa 0,0 l/m² 3,6 km/h (1 Bft) N-NO 22 ° 18,2 °C 34,6 °C
03.07.2015 19:13 23,9 °C 34,5 °C 58 % 38 % 1021,3 hPa 0,0 l/m² 8,3 km/h (2 Bft) N-NO 22 ° 18,1 °C 34,5 °C
03.07.2015 19:15 23,9 °C 34,5 °C 58 % 38 % 1021,3 hPa 0,0 l/m² 5,4 km/h (2 Bft) NO 45 ° 18,1 °C 34,5 °C
03.07.2015 19:17 23,9 °C 34,5 °C 58 % 38 % 1021,2 hPa 0,0 l/m² 6,1 km/h (2 Bft) NO 45 ° 18,1 °C 34,5 °C
03.07.2015 19:19 23,9 °C 34,4 °C 58 % 39 % 1021,1 hPa 0,0 l/m² 5,4 km/h (2 Bft) N-NO 22 ° 18,4 °C 34,4 °C
03.07.2015 19:21 23,9 °C 34,4 °C 58 % 39 % 1021,0 hPa 0,0 l/m² 7,2 km/h (2 Bft) NO 45 ° 18,4 °C 34,4 °C
03.07.2015 19:23 23,9 °C 34,3 °C 58 % 39 % 1021,0 hPa 0,0 l/m² 5,0 km/h (1 Bft) N-NO 22 ° 18,3 °C 34,3 °C
03.07.2015 19:25 23,9 °C 34,3 °C 58 % 39 % 1021,1 hPa 0,0 l/m² 4,0 km/h (1 Bft) N-NO 22 ° 18,3 °C 34,3 °C
03.07.2015 19:27 23,9 °C 34,2 °C 58 % 39 % 1021,2 hPa 0,0 l/m² 9,7 km/h (2 Bft) NO 45 ° 18,2 °C 34,2 °C
03.07.2015 19:29 23,9 °C 34,1 °C 58 % 39 % 1021,2 hPa 0,0 l/m² 0,0 km/h (0 Bft) NO 45 ° 18,1 °C 34,1 °C
03.07.2015 19:31 23,9 °C 33,9 °C 58 % 40 % 1021,3 hPa 0,0 l/m² 4,7 km/h (1 Bft) NO 45 ° 18,4 °C 33,9 °C
03.07.2015 19:33 23,9 °C 33,9 °C 58 % 40 % 1021,2 hPa 0,0 l/m² 4,7 km/h (1 Bft) NO 45 ° 18,4 °C 33,9 °C
03.07.2015 19:35 23,9 °C 33,8 °C 58 % 40 % 1021,2 hPa 0,0 l/m² 0,0 km/h (0 Bft) NO 45 ° 18,3 °C 33,8 °C
03.07.2015 19:37 23,9 °C 33,8 °C 58 % 40 % 1021,2 hPa 0,0 l/m² 3,6 km/h (1 Bft) NO 45 ° 18,3 °C 33,8 °C
03.07.2015 19:39 23,9 °C 33,6 °C 58 % 40 % 1021,3 hPa 0,0 l/m² 4,7 km/h (1 Bft) NO 45 ° 18,1 °C 33,6 °C
03.07.2015 19:41 23,9 °C 33,6 °C 58 % 40 % 1021,2 hPa 0,0 l/m² 3,6 km/h (1 Bft) N-NO 22 ° 18,1 °C 33,6 °C
03.07.2015 19:43 23,9 °C 33,4 °C 58 % 40 % 1021,1 hPa 0,0 l/m² 4,7 km/h (1 Bft) N 360 ° 17,9 °C 33,4 °C
03.07.2015 19:45 23,9 °C 33,4 °C 58 % 40 % 1021,2 hPa 0,0 l/m² 3,6 km/h (1 Bft) NO 45 ° 17,9 °C 33,4 °C
03.07.2015 19:47 23,9 °C 33,3 °C 58 % 41 % 1021,2 hPa 0,0 l/m² 2,2 km/h (1 Bft) O-NO 67 ° 18,2 °C 33,3 °C
03.07.2015 19:49 23,9 °C 33,3 °C 58 % 41 % 1021,2 hPa 0,0 l/m² 0,0 km/h (0 Bft) NO 45 ° 18,2 °C 33,3 °C
03.07.2015 19:51 23,9 °C 33,1 °C 58 % 41 % 1021,3 hPa 0,0 l/m² 2,5 km/h (1 Bft) NO 45 ° 18,0 °C 33,1 °C
03.07.2015 19:53 23,9 °C 33,1 °C 58 % 41 % 1021,2 hPa 0,0 l/m² 3,6 km/h (1 Bft) NO 45 ° 18,0 °C 33,1 °C
03.07.2015 19:55 23,9 °C 32,9 °C 58 % 42 % 1021,3 hPa 0,0 l/m² 4,7 km/h (1 Bft) N 360 ° 18,3 °C 32,9 °C
03.07.2015 19:57 23,9 °C 32,9 °C 58 % 42 % 1021,2 hPa 0,0 l/m² 0,0 km/h (0 Bft) NO 45 ° 18,3 °C 32,9 °C
03.07.2015 19:59 23,9 °C 32,9 °C 58 % 42 % 1021,2 hPa 0,0 l/m² 0,0 km/h (0 Bft) O-NO 67 ° 18,3 °C 32,9 °C
03.07.2015 20:01 23,9 °C 32,8 °C 58 % 42 % 1021,3 hPa 0,0 l/m² 0,0 km/h (0 Bft) N-NO 22 ° 18,2 °C 32,8 °C
03.07.2015 20:03 23,9 °C 32,8 °C 58 % 42 % 1021,3 hPa 0,0 l/m² 0,0 km/h (0 Bft) N-NO 22 ° 18,2 °C 32,8 °C
03.07.2015 20:05 24,0 °C 32,7 °C 58 % 42 % 1021,2 hPa 0,0 l/m² 0,0 km/h (0 Bft) N-NO 22 ° 18,1 °C 32,7 °C
03.07.2015 20:07 23,9 °C 32,6 °C 58 % 43 % 1021,2 hPa 0,0 l/m² 4,0 km/h (1 Bft) N-NO 22 ° 18,4 °C 32,6 °C
03.07.2015 20:09 23,9 °C 32,5 °C 58 % 43 % 1021,2 hPa 0,0 l/m² 0,0 km/h (0 Bft) N 360 ° 18,3 °C 32,5 °C
03.07.2015 20:11 23,9 °C 32,5 °C 58 % 44 % 1021,2 hPa 0,0 l/m² 2,2 km/h (1 Bft) N 360 ° 18,6 °C 32,5 °C
03.07.2015 20:13 23,9 °C 32,4 °C 58 % 44 % 1021,3 hPa 0,0 l/m² 1,8 km/h (1 Bft) N 360 ° 18,5 °C 32,4 °C
03.07.2015 20:15 24,0 °C 32,4 °C 59 % 44 % 1021,4 hPa 0,0 l/m² 5,0 km/h (1 Bft) N 360 ° 18,5 °C 32,4 °C
03.07.2015 20:17 23,9 °C 32,3 °C 58 % 44 % 1021,4 hPa 0,0 l/m² 4,7 km/h (1 Bft) N 360 ° 18,5 °C 32,3 °C
03.07.2015 20:19 24,0 °C 32,3 °C 58 % 44 % 1021,4 hPa 0,0 l/m² 2,5 km/h (1 Bft) N 360 ° 18,5 °C 32,3 °C
03.07.2015 20:21 24,0 °C 32,2 °C 58 % 44 % 1021,4 hPa 0,0 l/m² 5,0 km/h (1 Bft) N 360 ° 18,4 °C 32,2 °C
03.07.2015 20:23 24,0 °C 32,2 °C 58 % 44 % 1021,4 hPa 0,0 l/m² 0,0 km/h (0 Bft) N 360 ° 18,4 °C 32,2 °C
03.07.2015 20:25 24,0 °C 32,2 °C 59 % 44 % 1021,5 hPa 0,0 l/m² 0,0 km/h (0 Bft) N-NO 22 ° 18,4 °C 32,2 °C
03.07.2015 20:27 24,0 °C 32,2 °C 59 % 45 % 1021,5 hPa 0,0 l/m² 0,0 km/h (0 Bft) N-NW 337 ° 18,7 °C 32,2 °C
03.07.2015 20:29 24,0 °C 32,1 °C 59 % 46 % 1021,5 hPa 0,0 l/m² 2,9 km/h (1 Bft) N-NO 22 ° 19,0 °C 32,1 °C
03.07.2015 20:31 24,0 °C 32,1 °C 59 % 45 % 1021,5 hPa 0,0 l/m² 4,0 km/h (1 Bft) O-NO 67 ° 18,6 °C 32,1 °C
03.07.2015 20:33 24,0 °C 32,1 °C 59 % 45 % 1021,5 hPa 0,0 l/m² 2,9 km/h (1 Bft) O 90 ° 18,6 °C 32,1 °C
03.07.2015 20:35 24,0 °C 32,1 °C 59 % 45 % 1021,5 hPa 0,0 l/m² 2,9 km/h (1 Bft) O 90 ° 18,6 °C 32,1 °C
03.07.2015 20:37 24,0 °C 31,9 °C 59 % 45 % 1021,2 hPa 0,0 l/m² 6,8 km/h (2 Bft) O-NO 67 ° 18,5 °C 31,9 °C
03.07.2015 20:39 24,0 °C 31,9 °C 59 % 45 % 1021,3 hPa 0,0 l/m² 0,0 km/h (0 Bft) NO 45 ° 18,5 °C 31,9 °C
03.07.2015 20:41 24,0 °C 31,8 °C 59 % 45 % 1021,3 hPa 0,0 l/m² 6,8 km/h (2 Bft) N-NO 22 ° 18,4 °C 31,8 °C
03.07.2015 20:43 24,0 °C 31,7 °C 59 % 45 % 1021,2 hPa 0,0 l/m² 0,0 km/h (0 Bft) N-NO 22 ° 18,3 °C 31,7 °C
03.07.2015 20:45 24,0 °C 31,6 °C 59 % 45 % 1021,2 hPa 0,0 l/m² 4,7 km/h (1 Bft) NO 45 ° 18,2 °C 31,6 °C
03.07.2015 20:47 24,0 °C 31,6 °C 59 % 45 % 1021,2 hPa 0,0 l/m² 3,2 km/h (1 Bft) NO 45 ° 18,2 °C 31,6 °C
03.07.2015 20:49 24,0 °C 31,4 °C 59 % 45 % 1021,2 hPa 0,0 l/m² 5,8 km/h (2 Bft) NO 45 ° 18,0 °C 31,4 °C
03.07.2015 20:51 24,0 °C 31,4 °C 59 % 44 % 1021,2 hPa 0,0 l/m² 3,2 km/h (1 Bft) NO 45 ° 17,6 °C 31,4 °C
03.07.2015 20:53 24,0 °C 31,3 °C 59 % 45 % 1021,3 hPa 0,0 l/m² 4,3 km/h (1 Bft) N-NO 22 ° 17,9 °C 31,3 °C
03.07.2015 20:55 24,0 °C 31,2 °C 59 % 45 % 1021,3 hPa 0,0 l/m² 3,6 km/h (1 Bft) NO 45 ° 17,8 °C 31,2 °C
03.07.2015 20:57 24,0 °C 31,1 °C 59 % 45 % 1021,3 hPa 0,0 l/m² 4,0 km/h (1 Bft) N-NO 22 ° 17,7 °C 31,1 °C
03.07.2015 20:59 24,0 °C 31,0 °C 59 % 45 % 1021,3 hPa 0,0 l/m² 0,0 km/h (0 Bft) N-NO 22 ° 17,6 °C 31,0 °C
03.07.2015 21:01 24,0 °C 30,9 °C 59 % 45 % 1021,3 hPa 0,0 l/m² 3,6 km/h (1 Bft) NO 45 ° 17,6 °C 30,9 °C
03.07.2015 21:03 24,0 °C 30,8 °C 59 % 45 % 1021,2 hPa 0,0 l/m² 4,0 km/h (1 Bft) NO 45 ° 17,5 °C 30,8 °C
03.07.2015 21:05 24,0 °C 30,8 °C 59 % 45 % 1021,2 hPa 0,0 l/m² 4,0 km/h (1 Bft) NO 45 ° 17,5 °C 30,8 °C
03.07.2015 21:07 24,0 °C 30,8 °C 59 % 45 % 1021,2 hPa 0,0 l/m² 0,0 km/h (0 Bft) NO 45 ° 17,5 °C 30,8 °C
03.07.2015 21:09 24,0 °C 30,6 °C 59 % 45 % 1021,3 hPa 0,0 l/m² 1,8 km/h (1 Bft) N-NO 22 ° 17,3 °C 30,6 °C
03.07.2015 21:11 24,0 °C 30,6 °C 59 % 45 % 1021,3 hPa 0,0 l/m² 2,9 km/h (1 Bft) N-NO 22 ° 17,3 °C 30,6 °C
03.07.2015 21:13 24,0 °C 30,4 °C 59 % 46 % 1021,3 hPa 0,0 l/m² 3,6 km/h (1 Bft) N-NO 22 ° 17,5 °C 30,4 °C
03.07.2015 21:15 24,0 °C 30,4 °C 59 % 46 % 1021,4 hPa 0,0 l/m² 3,6 km/h (1 Bft) N-NO 22 ° 17,5 °C 30,4 °C
03.07.2015 21:17 24,0 °C 30,3 °C 59 % 46 % 1021,3 hPa 0,0 l/m² 2,9 km/h (1 Bft) N 360 ° 17,4 °C 30,3 °C
03.07.2015 21:19 24,0 °C 30,2 °C 59 % 46 % 1021,4 hPa 0,0 l/m² 4,3 km/h (1 Bft) N-NO 22 ° 17,3 °C 30,2 °C
03.07.2015 21:21 24,0 °C 30,1 °C 59 % 47 % 1021,4 hPa 0,0 l/m² 3,2 km/h (1 Bft) W 270 ° 17,5 °C 30,1 °C
03.07.2015 21:23 24,0 °C 29,9 °C 59 % 50 % 1021,4 hPa 0,0 l/m² 3,2 km/h (1 Bft) W 270 ° 18,3 °C 29,9 °C
03.07.2015 21:25 24,0 °C 29,9 °C 59 % 51 % 1021,5 hPa 0,0 l/m² 2,5 km/h (1 Bft) W-SW 247 ° 18,6 °C 29,9 °C
03.07.2015 21:27 24,0 °C 29,8 °C 59 % 51 % 1021,5 hPa 0,0 l/m² 4,0 km/h (1 Bft) W-SW 247 ° 18,5 °C 29,8 °C
03.07.2015 21:29 24,0 °C 29,6 °C 59 % 51 % 1021,5 hPa 0,0 l/m² 2,5 km/h (1 Bft) W 270 ° 18,4 °C 29,6 °C
03.07.2015 21:31 24,0 °C 29,5 °C 59 % 51 % 1021,5 hPa 0,0 l/m² 0,0 km/h (0 Bft) N-NW 337 ° 18,3 °C 29,5 °C
03.07.2015 21:33 24,0 °C 29,3 °C 59 % 51 % 1021,5 hPa 0,0 l/m² 0,0 km/h (0 Bft) W-NW 292 ° 18,1 °C 29,3 °C
03.07.2015 21:35 24,0 °C 29,3 °C 59 % 51 % 1021,6 hPa 0,0 l/m² 0,0 km/h (0 Bft) W-NW 292 ° 18,1 °C 29,3 °C
03.07.2015 21:37 24,0 °C 29,2 °C 59 % 52 % 1021,5 hPa 0,0 l/m² 0,0 km/h (0 Bft) W-NW 292 ° 18,3 °C 29,2 °C
03.07.2015 21:39 24,0 °C 29,0 °C 59 % 52 % 1021,5 hPa 0,0 l/m² 4,3 km/h (1 Bft) W-NW 292 ° 18,1 °C 29,0 °C
03.07.2015 21:41 24,0 °C 28,8 °C 59 % 53 % 1021,5 hPa 0,0 l/m² 5,0 km/h (1 Bft) W-NW 292 ° 18,2 °C 28,8 °C
03.07.2015 21:43 24,0 °C 28,6 °C 59 % 53 % 1021,6 hPa 0,0 l/m² 4,7 km/h (1 Bft) W-NW 292 ° 18,1 °C 28,6 °C
03.07.2015 21:45 24,0 °C 28,4 °C 59 % 54 % 1021,5 hPa 0,0 l/m² 3,6 km/h (1 Bft) NW 315 ° 18,2 °C 28,4 °C
03.07.2015 21:47 24,0 °C 28,3 °C 59 % 54 % 1021,6 hPa 0,0 l/m² 1,8 km/h (1 Bft) N 360 ° 18,1 °C 28,3 °C
03.07.2015 21:49 24,0 °C 28,2 °C 59 % 54 % 1021,6 hPa 0,0 l/m² 1,8 km/h (1 Bft) N-NW 337 ° 18,0 °C 28,2 °C
03.07.2015 21:51 24,0 °C 28,1 °C 59 % 54 % 1021,6 hPa 0,0 l/m² 0,0 km/h (0 Bft) N 360 ° 17,9 °C 28,1 °C
03.07.2015 21:53 24,0 °C 27,9 °C 59 % 55 % 1021,6 hPa 0,0 l/m² 0,0 km/h (0 Bft) N-NW 337 ° 18,0 °C 27,9 °C
03.07.2015 21:55 24,0 °C 27,9 °C 59 % 55 % 1021,5 hPa 0,0 l/m² 0,0 km/h (0 Bft) N-NW 337 ° 18,0 °C 27,9 °C
03.07.2015 21:57 24,0 °C 27,8 °C 59 % 56 % 1021,6 hPa 0,0 l/m² 0,0 km/h (0 Bft) NW 315 ° 18,2 °C 27,8 °C
03.07.2015 21:59 24,0 °C 27,6 °C 59 % 56 % 1021,6 hPa 0,0 l/m² 0,0 km/h (0 Bft) N 360 ° 18,0 °C 27,6 °C
03.07.2015 22:01 24,0 °C 27,3 °C 59 % 56 % 1021,5 hPa 0,0 l/m² 0,0 km/h (0 Bft) N 360 ° 17,7 °C 27,3 °C
03.07.2015 22:03 24,1 °C 27,2 °C 59 % 57 % 1021,6 hPa 0,0 l/m² 0,0 km/h (0 Bft) N 360 ° 17,9 °C 27,2 °C
03.07.2015 22:05 24,0 °C 27,2 °C 59 % 57 % 1021,5 hPa 0,0 l/m² 0,0 km/h (0 Bft) N 360 ° 17,9 °C 27,2 °C
03.07.2015 22:07 24,1 °C 27,0 °C 59 % 57 % 1021,7 hPa 0,0 l/m² 0,0 km/h (0 Bft) N-NW 337 ° 17,7 °C 27,0 °C
03.07.2015 22:09 24,1 °C 26,9 °C 59 % 57 % 1021,6 hPa 0,0 l/m² 0,0 km/h (0 Bft) N-NW 337 ° 17,6 °C 26,9 °C
03.07.2015 22:11 24,0 °C 26,8 °C 59 % 58 % 1021,8 hPa 0,0 l/m² 0,0 km/h (0 Bft) NW 315 ° 17,8 °C 26,8 °C
03.07.2015 22:13 24,0 °C 26,6 °C 59 % 58 % 1021,7 hPa 0,0 l/m² 0,0 km/h (0 Bft) W 270 ° 17,6 °C 26,6 °C
03.07.2015 22:15 24,0 °C 26,4 °C 59 % 60 % 1021,6 hPa 0,0 l/m² 0,0 km/h (0 Bft) W 270 ° 18,0 °C 26,4 °C
03.07.2015 22:17 24,0 °C 26,2 °C 59 % 60 % 1021,7 hPa 0,0 l/m² 2,9 km/h (1 Bft) W-SW 247 ° 17,8 °C 26,2 °C
03.07.2015 22:19 24,0 °C 25,9 °C 59 % 61 % 1021,7 hPa 0,0 l/m² 0,0 km/h (0 Bft) W-SW 247 ° 17,8 °C 25,9 °C
03.07.2015 22:21 24,1 °C 25,8 °C 59 % 62 % 1021,8 hPa 0,0 l/m² 0,0 km/h (0 Bft) W-SW 247 ° 18,0 °C 25,8 °C
03.07.2015 22:23 24,1 °C 25,8 °C 59 % 62 % 1021,8 hPa 0,0 l/m² 0,0 km/h (0 Bft) W-SW 247 ° 18,0 °C 25,8 °C
03.07.2015 22:25 24,0 °C 25,6 °C 59 % 63 % 1021,7 hPa 0,0 l/m² 0,0 km/h (0 Bft) W-SW 247 ° 18,0 °C 25,6 °C
03.07.2015 22:27 24,1 °C 25,4 °C 59 % 63 % 1021,6 hPa 0,0 l/m² 0,0 km/h (0 Bft) N-NW 337 ° 17,8 °C 25,4 °C
03.07.2015 22:29 24,1 °C 25,4 °C 59 % 62 % 1021,8 hPa 0,0 l/m² 0,0 km/h (0 Bft) W 270 ° 17,6 °C 25,4 °C
03.07.2015 22:31 24,1 °C 25,3 °C 59 % 62 % 1021,8 hPa 0,0 l/m² 0,0 km/h (0 Bft) NW 315 ° 17,5 °C 25,3 °C
03.07.2015 22:33 24,1 °C 25,2 °C 59 % 62 % 1021,8 hPa 0,0 l/m² 0,0 km/h (0 Bft) N-NW 337 ° 17,4 °C 25,2 °C
03.07.2015 22:35 24,1 °C 25,2 °C 59 % 62 % 1021,7 hPa 0,0 l/m² 0,0 km/h (0 Bft) N-NW 337 ° 17,4 °C 25,2 °C
03.07.2015 22:37 24,1 °C 25,2 °C 59 % 62 % 1021,7 hPa 0,0 l/m² 0,0 km/h (0 Bft) N 360 ° 17,4 °C 25,2 °C
03.07.2015 22:39 24,1 °C 25,1 °C 59 % 62 % 1021,8 hPa 0,0 l/m² 0,0 km/h (0 Bft) N-NW 337 ° 17,3 °C 25,1 °C
03.07.2015 22:41 24,1 °C 25,1 °C 59 % 62 % 1021,9 hPa 0,0 l/m² 0,0 km/h (0 Bft) N-NW 337 ° 17,3 °C 25,1 °C
03.07.2015 22:43 24,1 °C 25,1 °C 59 % 62 % 1021,8 hPa 0,0 l/m² 0,0 km/h (0 Bft) N-NW 337 ° 17,3 °C 25,1 °C
03.07.2015 22:45 24,1 °C 24,9 °C 59 % 62 % 1021,8 hPa 0,0 l/m² 0,0 km/h (0 Bft) NW 315 ° 17,1 °C 24,9 °C
03.07.2015 22:47 24,1 °C 24,9 °C 59 % 62 % 1021,8 hPa 0,0 l/m² 0,0 km/h (0 Bft) O-NO 67 ° 17,1 °C 24,9 °C
03.07.2015 22:49 24,1 °C 24,8 °C 59 % 63 % 1021,8 hPa 0,0 l/m² 0,0 km/h (0 Bft) O 90 ° 17,3 °C 24,8 °C
03.07.2015 22:51 24,1 °C 24,6 °C 59 % 64 % 1021,7 hPa 0,0 l/m² 0,0 km/h (0 Bft) O 90 ° 17,3 °C 24,6 °C
03.07.2015 22:53 24,1 °C 24,5 °C 59 % 65 % 1021,7 hPa 0,0 l/m² 0,0 km/h (0 Bft) O 90 ° 17,5 °C 24,5 °C
03.07.2015 22:55 24,1 °C 24,4 °C 59 % 65 % 1021,7 hPa 0,0 l/m² 0,0 km/h (0 Bft) O 90 ° 17,4 °C 24,4 °C
03.07.2015 22:57 24,1 °C 24,3 °C 59 % 65 % 1021,6 hPa 0,0 l/m² 0,0 km/h (0 Bft) O-NO 67 ° 17,3 °C 24,3 °C
03.07.2015 22:59 24,1 °C 24,2 °C 59 % 65 % 1021,7 hPa 0,0 l/m² 0,0 km/h (0 Bft) O-NO 67 ° 17,2 °C 24,2 °C
03.07.2015 23:01 24,1 °C 24,2 °C 59 % 63 % 1021,7 hPa 0,0 l/m² 0,0 km/h (0 Bft) O-NO 67 ° 16,7 °C 24,2 °C
03.07.2015 23:03 24,1 °C 24,2 °C 59 % 63 % 1021,6 hPa 0,0 l/m² 0,0 km/h (0 Bft) O-NO 67 ° 16,7 °C 24,2 °C
03.07.2015 23:05 24,1 °C 24,1 °C 59 % 65 % 1021,7 hPa 0,0 l/m² 0,0 km/h (0 Bft) O-SO 112 ° 17,1 °C 24,1 °C
03.07.2015 23:07 24,1 °C 24,1 °C 59 % 65 % 1021,7 hPa 0,0 l/m² 0,0 km/h (0 Bft) O-SO 112 ° 17,1 °C 24,1 °C
03.07.2015 23:09 24,1 °C 23,9 °C 59 % 66 % 1021,6 hPa 0,0 l/m² 0,0 km/h (0 Bft) O-SO 112 ° 17,1 °C 23,9 °C
03.07.2015 23:11 24,1 °C 23,8 °C 59 % 66 % 1021,7 hPa 0,0 l/m² 0,0 km/h (0 Bft) O-SO 112 ° 17,1 °C 23,8 °C
03.07.2015 23:13 24,1 °C 23,8 °C 59 % 66 % 1021,7 hPa 0,0 l/m² 0,0 km/h (0 Bft) O-SO 112 ° 17,1 °C 23,8 °C
03.07.2015 23:15 24,1 °C 23,6 °C 59 % 67 % 1021,7 hPa 0,0 l/m² 0,0 km/h (0 Bft) O-SO 112 ° 17,1 °C 23,6 °C
03.07.2015 23:17 24,1 °C 23,6 °C 59 % 67 % 1021,7 hPa 0,0 l/m² 0,0 km/h (0 Bft) O-SO 112 ° 17,1 °C 23,6 °C
03.07.2015 23:19 24,1 °C 23,5 °C 59 % 67 % 1021,7 hPa 0,0 l/m² 0,0 km/h (0 Bft) O-SO 112 ° 17,0 °C 23,5 °C
03.07.2015 23:21 24,1 °C 23,4 °C 59 % 67 % 1021,7 hPa 0,0 l/m² 0,0 km/h (0 Bft) W-NW 292 ° 16,9 °C 23,4 °C
03.07.2015 23:23 24,1 °C 23,3 °C 59 % 68 % 1021,7 hPa 0,0 l/m² 0,0 km/h (0 Bft) N 360 ° 17,1 °C 23,3 °C
03.07.2015 23:25 24,1 °C 23,3 °C 59 % 67 % 1021,7 hPa 0,0 l/m² 0,0 km/h (0 Bft) N-NO 22 ° 16,8 °C 23,3 °C
03.07.2015 23:27 24,1 °C 23,3 °C 59 % 67 % 1021,8 hPa 0,0 l/m² 0,0 km/h (0 Bft) N-NO 22 ° 16,8 °C 23,3 °C
03.07.2015 23:29 24,1 °C 23,2 °C 59 % 67 % 1021,6 hPa 0,0 l/m² 0,0 km/h (0 Bft) NW 315 ° 16,7 °C 23,2 °C
03.07.2015 23:31 24,1 °C 23,2 °C 59 % 67 % 1021,7 hPa 0,0 l/m² 0,0 km/h (0 Bft) W 270 ° 16,7 °C 23,2 °C
03.07.2015 23:33 24,1 °C 23,2 °C 59 % 67 % 1021,7 hPa 0,0 l/m² 0,0 km/h (0 Bft) W 270 ° 16,7 °C 23,2 °C
03.07.2015 23:35 24,1 °C 23,2 °C 59 % 67 % 1021,7 hPa 0,0 l/m² 0,0 km/h (0 Bft) W 270 ° 16,7 °C 23,2 °C
03.07.2015 23:37 24,1 °C 23,2 °C 59 % 67 % 1021,7 hPa 0,0 l/m² 0,0 km/h (0 Bft) W 270 ° 16,7 °C 23,2 °C
03.07.2015 23:39 24,1 °C 23,0 °C 59 % 68 % 1021,6 hPa 0,0 l/m² 0,0 km/h (0 Bft) W-SW 247 ° 16,8 °C 23,0 °C
03.07.2015 23:41 24,1 °C 22,8 °C 59 % 68 % 1021,6 hPa 0,0 l/m² 0,0 km/h (0 Bft) W-SW 247 ° 16,6 °C 22,8 °C
03.07.2015 23:43 24,1 °C 22,5 °C 59 % 69 % 1021,6 hPa 0,0 l/m² 1,4 km/h (1 Bft) SW 225 ° 16,5 °C 22,5 °C
03.07.2015 23:45 24,1 °C 22,4 °C 59 % 70 % 1021,7 hPa 0,0 l/m² 0,0 km/h (0 Bft) S-SW 202 ° 16,7 °C 22,4 °C
03.07.2015 23:47 24,1 °C 22,2 °C 59 % 70 % 1021,6 hPa 0,0 l/m² 2,2 km/h (1 Bft) S-SW 202 ° 16,5 °C 22,2 °C
03.07.2015 23:49 24,1 °C 22,1 °C 59 % 71 % 1021,6 hPa 0,0 l/m² 1,4 km/h (1 Bft) SW 225 ° 16,6 °C 22,1 °C
03.07.2015 23:51 24,1 °C 22,1 °C 59 % 71 % 1021,6 hPa 0,0 l/m² 0,0 km/h (0 Bft) S-SW 202 ° 16,6 °C 22,1 °C
03.07.2015 23:53 24,1 °C 22,1 °C 59 % 70 % 1021,5 hPa 0,0 l/m² 0,0 km/h (0 Bft) S-SW 202 ° 16,4 °C 22,1 °C
03.07.2015 23:55 24,1 °C 22,0 °C 59 % 71 % 1021,6 hPa 0,0 l/m² 0,0 km/h (0 Bft) S-SW 202 ° 16,5 °C 22,0 °C
03.07.2015 23:57 24,1 °C 21,9 °C 59 % 71 % 1021,6 hPa 0,0 l/m² 0,0 km/h (0 Bft) S-SW 202 ° 16,4 °C 21,9 °C
03.07.2015 23:59 24,1 °C 21,9 °C 59 % 71 % 1021,6 hPa 0,0 l/m² 0,0 km/h (0 Bft) S-SW 202 ° 16,4 °C 21,9 °C
_ Min-Zeit 11:57 05:29 20:23 18:37 18:27 - 23:59 - - 04:31 05:29
Minimum _ 23,4 °C 15,7 °C 58 % 33 % 1020,9 hPa - 0,0 km/h (0 Bft) - - 12,1 °C 15,7 °C
_ Max-Zeit 23:59 17:01 23:59 06:37 11:53 23:59 10:57 - - 13:45 17:01
Maximum _ 24,1 °C 37,3 °C 59 % 82 % 1024,4 hPa 0,0 l/m² 32,4 km/h
W-NW (5 Bft)
- - 19,4 °C 37,3 °C
Durchschnitt _ 23,6 °C 26,8 °C 58 % 55 % 1022,1 hPa #0,0 l/m² 3,9 km/h (1 Bft) O-SO - 16,3 °C 26,8 °C
© 2009 Mathias Hoßbach